GFSFLT1_con_sbcape_000.txt.gz
CAPE
469 703 377 468 697 911 1221 1316 1583 1885 2503 3566 3371 3320 3724 4274 4043 3270 3059 2946 1892 1295 795 386 610 1821 857 436 298 231 33 2 10
204 637 576 359 633 864 1136 1381 1895 2553 3278 3059 3142 3067 3414 3770 3982 3634 2993 2841 2783 1785 1467 432 1064 1139 729 271 366 93 45 2 9
236 573 662 418 549 774 1043 1312 1606 2027 2541 3149 2886 2865 3048 3152 3331 3535 3331 3158 3231 2256 1888 1403 918 741 323 286 244 94 143 25 11
159 448 762 705 518 618 1031 1135 1396 1873 2296 2623 2859 2836 3425 3246 2941 3050 3370 3304 3428 3017 2210 1396 947 789 263 277 232 175 235 186 9
10 260 733 909 808 791 912 1251 1216 1541 1939 2382 2695 3304 3540 2997 2913 2889 3140 3390 3058 2317 1729 973 1038 534 397 305 173 196 298 185 10
99 442 767 1079 1076 1174 1208 1242 1862 1606 1984 2181 2361 2767 2902 2891 2837 2930 3067 2819 1697 1671 863 649 360 432 663 738 695 276 358 399 294
210 691 903 1224 1254 1514 1578 1941 2671 2728 2039 2192 2382 2483 2869 3034 2839 2752 2734 2004 427 263 240 325 199 430 274 272 535 553 512 410 401
238 865 967 1321 1500 2493 2777 2740 2870 2583 2360 2402 2460 2670 2713 3018 3048 2663 1991 1267 321 165 152 438 7 33 0 13 629 317 735 355 259
289 1017 1103 1419 1670 1938 2312 2362 2491 2564 2594 2495 2641 2819 2892 3026 3421 2400 1304 960 778 897 745 392 32 2 10 32 155 24 19 158 321
332 960 1135 1298 1635 1849 2315 2444 2685 2635 2645 2599 2681 2893 3024 3223 3019 1968 1223 889 856 794 568 327 197 134 133 62 329 58 29 40 242
349 966 1149 1281 1389 1751 2013 1974 2102 2180 2333 2541 2734 2980 2999 3004 2649 1727 1612 1240 1160 911 461 227 364 304 191 167 253 251 0 2 449
516 1033 1355 1392 1329 1605 1842 1565 1804 1903 2096 2360 2557 2764 2824 2508 2075 1479 1216 1242 1149 1114 838 562 644 657 555 552 646 0 0 0 474
246 755 984 1177 1086 1399 1362 1377 1506 1874 2058 2385 2624 2728 2656 2085 1747 1680 1367 1426 1312 1146 1160 826 471 598 664 330 1108 0 0 0 435
691 1052 1164 1246 1161 1102 1333 1373 1626 1856 2080 2341 2514 2695 2494 1929 1905 2116 2034 1818 1347 1103 959 855 931 781 1051 796 369 638 0 0 549
1126 1058 896 820 1307 1703 1716 1748 2005 2283 2430 2671 2805 2776 2120 1980 1880 1787 1831 1631 1180 948 1081 1069 887 1445 1245 1022 1077 63 0 0 1
767 728 742 870 1433 1904 2162 2370 2381 2698 3294 3053 2911 2231 1949 1986 1810 1535 1528 1469 949 815 912 871 1157 1285 1039 848 1051 289 1 0 1
1125 1291 1141 1137 1312 1791 2409 2530 2653 3047 2568 2637 2721 2174 2059 1673 1902 1623 1440 1289 1140 1346 1327 1077 1644 1347 1028 430 876 570 71 2 1
1295 1391 1323 1247 1437 2031 2337 2405 2426 2318 2245 2191 2190 1987 1741 1675 1411 1283 1677 851 257 1249 166 177 602 474 253 660 1125 635 259 87 174
1478 1765 1802 1869 1966 2300 2401 2416 2400 2419 2133 2181 2062 1414 1410 1395 1409 1682 1513 756 119 0 0 1 1 1 56 133 0 0 0 0 0
155 767 1023 1948 1849 2070 2163 2298 2304 2288 2302 2046 1813 1699 1650 1455 984 1008 1027 975 582 195 0 0 0 0 0 0 0 0 0 0 0

GFSFLT1_con_sbcape_003.txt.gz
CAPE
122 644 747 418 783 1276 1846 1819 2627 2859 3753 4680 4831 4568 4725 4750 4714 2860 2494 2989 2162 1363 964 741 1571 1665 1642 1141 273 287 234 27 1
27 285 679 609 494 861 1530 1655 2436 2919 3787 4357 4577 3631 4870 4859 4729 4552 2696 3704 3685 2136 2437 846 521 1240 1729 1320 579 426 399 39 510
12 51 657 662 485 625 1252 1245 1881 2780 3557 4249 4017 4185 4459 4275 4420 4611 4279 4372 4080 3445 2808 1857 1860 1267 1324 1102 937 982 915 506 528
37 58 491 786 567 551 845 918 1472 1980 2745 3842 4045 4184 4125 4303 3928 4058 4307 4090 3913 3729 2947 2798 2110 2168 1628 974 740 395 475 363 153
31 77 290 652 726 522 650 1262 1077 1293 1712 2069 3138 3961 4437 4421 4420 4100 3974 4155 4101 3984 3537 2901 2194 1975 1412 665 606 624 678 274 108
6 82 119 589 660 892 888 1054 1305 1056 1623 1503 2028 3433 3525 4142 3912 4201 4041 4123 4123 3926 3778 2884 1813 1647 1344 794 656 764 684 682 458
8 58 493 535 832 1285 1350 1521 1763 1695 1565 1289 1724 2408 2764 3939 4234 4034 3825 4120 3908 3373 3141 2492 1550 1372 951 803 602 477 445 494 390
0 1 369 968 1201 2285 2469 2198 2452 2362 1978 2363 2186 3204 3068 4028 4453 4081 3903 3977 3938 3153 2614 2010 1180 919 703 585 318 441 709 452 466
0 0 15 937 1442 1821 3052 2824 3157 3048 2942 3022 3070 3899 3782 4362 4646 4294 3901 3835 3346 2302 2179 1548 999 443 424 427 101 0 38 465 239
2 64 94 478 1373 1834 2511 2507 3440 3417 3635 3390 3787 4306 4408 4780 4821 4254 3346 3105 2694 2159 1819 1510 1108 483 522 337 487 1 0 0 256
66 174 171 229 1086 1823 2730 2288 2308 2919 3085 4095 4370 4529 4541 4758 4618 3683 2660 2195 2057 1955 2025 1846 1286 662 862 560 486 0 0 0 216
2 27 224 432 1392 1839 3427 3038 3569 3734 3439 3895 4181 4002 4551 4685 4048 3286 2443 1826 1785 2185 2130 2330 1209 584 743 754 660 0 0 0 434
408 462 246 860 1648 2098 2744 3289 2763 3344 2911 3469 3936 4035 4265 4573 3732 2984 2198 1835 1891 2193 2286 1915 875 610 885 769 1178 0 0 0 316
523 565 1380 2020 2028 2883 3243 3132 2538 3197 3071 3062 3100 3221 3339 3536 2930 2524 1943 2056 2288 2019 1883 1455 857 718 1104 1509 1087 667 0 0 379
1010 1215 1600 1712 2228 2590 2520 2879 3082 3368 3566 3724 3908 3752 3447 2907 2458 2165 2157 2361 1828 1552 1575 1410 1335 1627 1471 1322 1180 304 0 0 0
1626 1624 1671 1537 1503 2454 2458 3096 3318 3693 4535 4370 4062 3919 3065 2549 2480 2395 2533 2292 2048 1733 1558 1211 1285 1354 1055 1029 1143 1701 4 1 1
844 965 1290 1339 1598 2156 2697 3180 2822 3591 3528 3599 3661 2900 2466 2345 2275 2199 2173 2145 1437 1109 885 1051 1250 1250 1432 1341 1661 729 384 18 4
1197 1141 1161 1419 1705 2136 2440 2832 3240 2973 3261 3388 2756 2429 2309 2740 2313 2127 2020 997 831 1622 1355 1059 1156 1133 1234 1311 650 780 400 23 188
1370 1375 1458 1773 1733 2224 2559 2762 2890 2829 2892 2940 3071 2564 2560 2299 2029 2250 1595 444 4 0 0 1 0 0 50 44 0 0 0 0 0
309 1068 1251 1475 1606 1940 2358 2606 2899 2679 3067 2940 2678 2513 2362 2170 1792 1928 1711 1529 1360 728 0 0 0 0 0 0 0 0 0 0 0

GFSFLT1_con_sbcape_009.txt.gz
CAPE
81 78 6 3 322 457 659 714 1263 1742 2159 2083 2524 2455 2446 1723 2068 1330 1145 1618 1638 1467 1373 1424 1188 1191 812 337 80 278 269 79 88
13 37 17 11 137 402 649 733 1470 1513 2475 2516 2598 2777 2669 2199 2056 2003 1726 1712 2070 1355 913 1098 1072 1271 1021 530 187 258 185 102 11
26 1 5 64 116 411 681 824 1275 1608 2196 2689 2884 2549 2936 2629 2368 1798 1739 1657 1886 1913 1063 1254 833 1329 1390 946 220 169 175 38 112
15 11 64 132 188 371 788 956 1230 1568 2164 2727 2964 3048 2925 2818 2694 2268 1932 2138 1950 1678 1426 1127 1131 1015 1455 963 343 325 281 16 24
7 0 24 147 243 440 938 1082 1077 1558 2622 2753 3040 3182 3109 3034 2998 2765 2401 2021 2124 1970 1564 1122 1236 1253 851 1028 560 355 358 62 111
0 10 372 401 310 783 1060 1138 1096 1545 2153 3035 3235 3351 3226 3192 2972 3083 2952 2358 2668 2555 1633 1611 932 799 963 887 697 428 417 101 11
6 23 216 323 428 886 1036 1299 1260 1266 1863 2755 3221 3479 3342 3115 3039 3033 3072 2913 2331 2703 2458 1881 1086 947 946 968 663 405 382 200 106
53 140 463 389 591 582 1040 1203 1285 1380 1585 1922 2886 3182 3250 3052 3054 3060 3115 3052 3002 2375 2356 2130 1888 1248 1209 836 452 347 273 287 266
1 424 887 645 663 597 644 931 1062 1298 1549 1885 2245 2912 3068 2909 2981 2954 3076 3027 2996 2879 2456 2384 2145 1681 1268 923 504 402 301 291 327
2 8 595 714 827 1485 717 891 1056 1287 1502 1638 2030 2511 2881 2869 2737 2926 2875 2937 2844 2944 2827 2838 2592 1728 1143 780 456 258 232 333 276
0 0 27 342 700 1060 1836 1073 1045 1247 1366 1630 1828 1983 2603 2714 2934 2842 3088 3036 2962 3146 2993 2828 2218 1426 796 505 281 87 3 59 222
0 0 0 0 209 951 1427 1614 1245 1067 1148 1416 1489 1637 1983 2548 2682 3057 3269 3169 3067 3221 2996 2263 1931 1173 485 229 233 73 0 0 35
72 5 0 0 47 28 1556 1612 1495 1238 1144 1264 1250 1391 1889 2373 2558 3046 3467 3238 3045 2603 1972 1653 1554 1031 288 164 258 100 29 0 0
1221 936 491 0 247 626 1659 1896 1764 1526 1382 1257 1629 1353 2766 3153 3618 3634 3049 2429 1754 1483 1564 1625 1673 1291 342 214 290 12 0 0 0
1226 991 871 3022 1358 1945 2357 2324 2429 2325 1759 1827 3109 3429 4129 3858 2973 2584 1955 1520 1474 1502 1582 1404 886 573 380 306 337 76 0 0 0
1576 2108 2964 3059 3538 3725 3716 3013 3010 3591 3878 3781 3786 4066 3429 2449 2071 1820 1424 1279 1402 1419 1037 853 689 571 519 733 675 181 6 0 0
2273 2303 2681 2871 3086 3111 3307 3457 3587 3701 3648 3692 3870 3172 2399 1816 1604 1603 1457 1155 1090 1168 1141 970 677 682 735 766 590 12 0 1 1
461 1630 2742 2990 3102 3573 3476 3427 3473 3363 3431 3381 2667 2178 1705 1593 1567 1575 127 0 161 77 0 396 883 984 665 448 588 380 0 0 0
0 3 301 2496 2941 3157 3273 3402 3226 2832 2421 2102 1989 1750 1541 1678 1369 59 0 0 0 0 0 0 0 4 144 0 20 521 292 78 21
0 0 0 763 2095 2600 2750 3104 2894 2613 2288 2041 1846 1750 1653 1621 742 262 37 0 0 0 0 0 0 0 0 0 0 0 0 0 0

GFSFLT1_con_sbcape_012.txt.gz
CAPE
0 0 4 17 4 63 63 184 591 935 1074 961 1186 1274 1446 1411 1237 1111 975 373 1032 1141 1291 1349 991 1076 560 44 0 0 0 0 0
0 0 0 0 36 66 122 220 567 903 1332 1231 1368 1565 1234 1471 1554 1307 1123 849 946 1129 1014 1099 913 1058 437 65 3 2 10 0 0
2 0 0 0 2 118 246 220 610 1040 1415 1448 1651 1818 1647 1433 1434 1625 1211 828 1206 1064 873 1003 915 825 540 146 14 72 15 4 0
19 10 8 0 4 120 289 357 795 1198 1442 1435 1748 1969 1883 1868 1645 1384 1496 1230 1256 1410 846 587 859 711 662 305 87 26 0 1 3
114 100 3 8 1 71 259 524 940 1143 1665 1674 1771 2102 2106 2028 2035 1836 1510 1410 1453 1197 1201 643 823 710 897 655 243 32 80 0 0
0 0 0 0 23 77 303 570 807 1269 1632 1949 2092 2178 2206 2396 2240 2151 1864 1511 1544 1479 1253 698 697 633 1007 862 452 157 85 11 0
9 19 0 0 45 115 443 671 831 1306 1527 2157 2236 2450 2422 2449 2479 2343 2279 1920 1640 1556 1604 984 820 778 711 972 686 251 207 73 0
4 60 2 2 58 181 561 827 870 1216 1703 1983 2322 2487 2667 2618 2607 2560 2543 2338 2043 1773 2066 1292 939 604 784 620 701 493 255 188 31
0 0 6 76 128 332 610 875 930 1087 1562 2252 2363 2615 2699 2723 2782 2703 2679 2718 2566 2037 1957 1990 1072 724 524 591 716 583 241 238 134
0 0 137 190 266 517 613 906 1025 1017 1515 2088 2550 2707 2873 2898 2776 2725 2687 2723 2700 2599 2070 1733 1514 923 773 691 732 500 52 91 184
0 0 1 298 308 446 688 922 1103 1195 1310 1815 2442 2608 2833 3023 2910 2750 2690 2729 2768 2642 2575 2044 1885 1328 1006 856 487 87 34 111 156
0 0 0 3 240 457 487 675 965 1217 1317 1559 1861 2292 2589 2795 2828 2622 2684 2611 2764 2582 2648 2413 2250 1564 1119 859 562 0 0 42 89
0 0 0 0 0 336 1096 541 790 989 1192 1481 1653 1921 2250 2648 2694 2543 2547 2669 2688 2700 2665 2610 1848 1352 1059 668 327 0 1 0 0
508 281 35 0 0 0 347 1211 714 742 941 1232 1541 1808 1996 2208 2543 2563 2540 2745 2738 2842 2455 2189 1713 987 297 154 164 19 9 0 0
737 443 438 1579 28 0 0 576 1004 799 782 937 1269 1482 1595 1609 2221 2421 2772 2735 2540 2252 1850 1689 1281 673 340 178 120 65 0 0 0
1731 1775 1857 2025 2077 992 2197 900 1287 1114 939 941 954 1046 1537 1995 2462 2721 2584 2266 1934 1502 1353 1169 749 618 220 92 76 0 0 0 0
151 72 159 101 532 1898 2727 2420 1771 1290 1148 1218 1571 2567 3015 2721 2367 2034 1805 1371 1334 982 812 681 482 461 334 257 131 0 0 0 0
0 0 0 0 0 0 0 1927 3123 3036 2839 3199 3060 2640 2381 1990 1381 1418 357 0 323 389 246 397 438 257 253 299 205 6 0 0 0
0 0 0 0 0 0 0 0 423 3267 3154 2693 2210 1829 1749 1351 145 1 1 1 1 0 0 2 306 334 201 1 98 44 0 0 1
0 0 0 10 1 0 0 50 4 1309 1947 1891 2020 1831 1274 448 101 0 0 0 0 0 0 0 0 0 1 0 0 0 0 0 2

GFSFLT1_con_sbcape_015.txt.gz
CAPE
0 0 0 12 23 26 167 170 457 518 459 631 1032 1103 1025 895 781 694 601 270 410 550 891 1024 1014 834 687 323 0 0 0 0 0
0 0 0 4 11 1 69 130 161 545 511 445 855 1146 1134 1026 962 860 699 330 387 557 768 1005 886 915 774 248 9 0 0 0 0
0 0 0 1 16 16 14 69 106 392 613 561 517 896 1121 1123 1030 927 759 544 448 597 744 842 746 931 721 216 18 0 0 0 0
0 0 0 0 12 21 16 35 47 308 654 672 623 713 917 973 1110 1045 876 630 729 749 690 655 817 816 723 274 30 0 0 0 0
0 0 0 0 0 7 41 48 55 318 592 813 749 848 1011 958 948 1091 1184 930 762 921 877 606 729 659 670 369 87 17 6 0 0
0 0 0 0 0 0 9 46 76 335 660 894 917 1044 1172 1211 1203 1109 1236 1281 1127 962 1088 626 695 575 674 449 157 37 7 0 0
0 0 0 0 0 0 10 37 156 445 773 971 1031 1206 1383 1433 1441 1485 1249 1249 1241 1270 1126 872 621 646 732 706 432 171 40 2 0
0 0 0 0 0 0 1 18 224 568 779 1168 1161 1279 1540 1607 1604 1673 1650 1509 1285 1211 1185 1089 816 566 617 769 641 351 188 97 51
0 0 0 0 0 0 2 54 305 528 985 1228 1441 1511 1631 1738 1851 1923 1906 1860 1642 1367 1270 1287 801 740 590 547 741 604 234 217 131
0 0 0 0 0 0 3 164 401 556 1064 1194 1753 1754 1855 1935 1924 2109 2144 2077 1955 1703 1428 1514 942 742 624 568 578 516 172 119 166
0 0 0 0 0 0 72 338 594 686 1003 1373 1738 1954 1984 2147 2203 2178 2261 2305 2233 2070 1689 1784 1139 879 545 638 641 104 80 175 151
0 0 0 0 0 9 170 444 714 847 927 1366 1879 2017 2140 2277 2414 2379 2439 2427 2483 2407 2156 1729 1669 1193 953 930 832 61 30 28 144
0 0 0 0 0 35 177 475 891 974 981 1366 1928 2220 2284 2442 2588 2525 2489 2527 2485 2548 2563 2141 1833 1666 1402 1303 974 1 1 28 227
35 2 64 2 0 7 169 348 812 1033 1088 1163 1605 2059 2380 2413 2613 2692 2574 2480 2479 2602 2619 2399 2174 2049 1680 1366 938 1 1 11 118
590 485 814 1564 1478 946 483 0 368 876 1088 1231 1314 1597 1798 2182 2376 2669 2512 2475 2439 2532 2654 2513 2435 2099 872 689 69 2 0 0 1
0 0 0 0 3 46 11 1270 843 438 629 1049 1297 1417 1522 1591 2096 2414 2332 2420 2552 2672 2710 2543 1992 1107 659 385 257 81 0 0 0
0 0 0 0 0 0 0 0 100 304 938 720 856 1159 1392 1506 1872 2275 2342 2534 2698 2672 2423 2188 1436 922 554 215 99 0 0 0 0
0 0 0 0 0 0 0 0 0 0 0 19 641 838 1114 1370 1776 2354 1953 1042 1629 2243 1177 1354 819 556 300 116 79 0 0 0 0
0 0 0 0 0 0 0 0 292 162 0 0 500 1693 2120 2125 2067 105 1 0 0 1 1 322 260 200 149 2 0 0 0 0 1
0 0 8 41 61 75 0 164 266 3 0 0 0 1202 2045 864 125 157 391 581 283 0 1 0 2 2 0 0 0 0 3 2 2

GFSFLT1_con_sbcape_018.txt.gz
CAPE
19 77 169 231 182 113 174 150 95 267 507 589 616 521 451 415 408 376 380 302 339 395 541 765 895 786 730 488 104 62 0 0 0
0 0 0 30 121 101 94 99 121 265 448 534 615 630 572 506 496 517 472 444 297 404 513 690 827 874 763 579 109 58 0 0 0
0 0 0 0 0 3 23 87 112 271 419 445 515 712 738 723 682 667 621 552 331 401 452 810 841 949 898 601 177 43 0 0 0
0 0 0 0 0 1 5 23 89 198 402 451 414 794 889 892 862 829 776 649 506 480 551 621 867 938 900 624 245 75 4 0 0
0 0 0 0 0 0 0 0 19 99 348 465 427 543 983 1007 988 962 904 761 725 599 562 614 823 842 943 730 354 141 71 3 0
0 0 0 0 0 0 0 0 0 48 180 475 523 476 696 979 1043 1017 972 878 863 717 729 631 743 833 905 779 491 216 131 89 43
0 0 0 0 0 0 0 0 0 13 131 361 586 609 610 809 945 1021 1099 1056 968 767 871 742 792 847 936 871 612 346 253 163 102
0 0 0 0 0 0 0 0 13 60 145 377 629 735 771 892 992 962 1023 1222 1172 1043 973 972 813 916 931 947 726 520 294 231 163
0 0 0 0 0 0 0 0 86 178 296 546 733 910 956 1066 1193 1245 1205 1144 1244 1255 1144 1192 946 865 976 942 908 624 232 286 310
0 0 0 0 0 0 0 0 182 268 464 691 849 1004 1138 1304 1386 1454 1525 1426 1297 1253 1234 1228 1064 1016 985 1020 1082 537 225 182 522
0 0 0 0 0 0 0 0 23 283 415 757 1108 1142 1210 1448 1620 1647 1658 1709 1599 1488 1360 1304 1248 1122 1021 985 931 476 188 135 744
0 0 0 0 0 0 0 0 19 283 565 912 1205 1422 1448 1593 1755 1825 1848 1915 1898 1802 1647 1467 1480 1304 1044 1047 1062 363 46 78 650
0 0 0 0 0 0 0 0 88 372 653 1043 1207 1665 1727 1812 1906 1902 1926 2117 2107 2035 1926 1751 1737 1374 1087 983 1238 62 0 85 544
392 811 492 0 0 0 0 0 245 497 609 978 1342 1580 1835 1946 2083 2175 2097 2237 2337 2358 2295 2115 1926 1612 1417 1394 1152 253 0 5 459
34 234 653 613 577 776 985 119 260 514 624 841 1149 1530 1861 2013 2228 2324 2291 2450 2480 2548 2568 2569 2117 1839 1785 1669 1278 283 1 2 458
0 0 0 0 0 0 13 396 358 490 558 780 495 1124 1527 2130 2272 2513 2598 2611 2620 2637 2642 2592 2281 1976 2031 1436 138 0 1 1 5
0 0 0 0 0 0 0 0 0 0 0 592 927 554 1022 1492 2141 2443 2725 2681 2615 2713 2740 2717 2309 2213 1839 951 167 11 2 1 0
0 0 0 0 0 0 0 0 0 0 0 0 321 1271 607 1136 1600 1733 2560 2613 2469 2678 2796 2659 2549 2136 1074 479 258 27 0 0 0
1 1 1 5 66 61 0 0 0 0 0 0 0 580 1465 960 1418 1736 2326 196 1 27 1356 1138 1005 730 416 66 1 1 0 0 0
0 0 0 0 4 120 245 255 12 0 0 0 0 0 1184 1548 1463 1212 181 512 316 0 0 1 4 40 85 1 0 0 1 1 2

GFSFLT1_con_sbcape_021.txt.gz
CAPE
604 795 928 1056 1427 1546 1587 1455 1449 1259 1408 1780 1920 1911 1998 2091 2244 1790 1941 2123 1479 1408 1411 1566 1971 2287 2290 2248 2133 1981 1553 1192 898
101 443 736 876 1258 1482 1543 1627 1549 1478 1445 1673 1881 1877 1959 2019 2094 2030 1928 2187 2214 1532 2075 1541 1860 2146 2300 2317 2194 2002 1625 1237 936
0 0 217 594 995 1229 1321 1294 1632 1470 1464 1677 1819 1897 1929 1867 1929 2010 2058 2182 2211 2130 2058 1880 1725 1982 2208 2316 2219 2020 1735 1435 1055
0 0 7 132 566 996 1244 1087 1222 1419 1425 1701 1930 1995 2027 1971 1934 1945 2030 2096 2240 2287 2214 2196 2149 2158 2137 2208 2216 2027 1825 1683 1244
0 22 86 77 144 356 687 1218 1099 1288 1348 1494 1759 1929 2093 2076 2119 2103 2089 2135 2211 2342 2374 2153 2644 2559 2228 2236 2277 2083 1837 1756 1347
0 0 19 75 51 128 509 821 1170 1180 1165 1257 1343 1794 1945 2113 2201 2245 2209 2209 2286 2374 2404 2412 1954 2515 2629 2220 2170 2109 1874 1921 1732
0 0 1 65 108 573 581 763 1007 1073 1213 1196 1326 1513 1818 2091 2253 2276 2294 2330 2401 2406 2454 2436 2491 2566 2582 2400 2097 2064 1911 1845 1897
0 0 0 0 2 662 913 893 1035 1075 1084 1404 1502 1774 1741 2058 2327 2394 2447 2453 2452 2448 2486 2382 2461 2607 2616 2444 2172 1909 2137 1868 1866
0 0 0 0 0 171 446 849 1122 1090 1158 1334 1590 1878 1873 1954 2312 2512 2518 2554 2567 2541 2497 2482 2514 2507 2586 2571 2050 1423 992 1687 2102
0 0 0 0 0 81 554 632 1108 1133 1260 1411 1656 1570 2019 2198 2280 2447 2512 2537 2602 2553 2534 2494 2547 2510 2576 2624 2621 933 393 344 2033
0 0 0 0 0 0 774 337 360 1010 1139 1584 1754 1956 2189 2325 2387 2423 2497 2462 2555 2678 2644 2576 2655 2554 2582 2679 2599 725 218 148 1590
0 0 0 0 0 0 333 598 1083 1398 1434 1685 1867 1983 2202 2366 2442 2456 2578 2615 2592 2623 2708 2768 2692 2698 2684 2627 2707 655 91 84 1415
0 0 0 0 0 0 29 182 279 1276 1292 1672 2060 2170 2248 2364 2652 2708 2754 2807 2891 2820 2738 2723 2593 2771 2774 2232 2710 731 6 56 1665
215 316 0 0 10 394 510 658 486 1517 1643 1986 1864 2024 2314 2825 2867 2910 2984 3082 3100 3120 3081 2828 2875 2856 2813 2817 2341 2514 0 0 2003
1589 1496 604 396 1133 1439 1310 987 1458 1582 1877 1882 2134 2345 2680 3179 3198 2880 2904 3362 3412 3380 3176 3034 3002 2909 2771 2548 2737 1534 0 1 541
933 545 650 1563 1479 1017 1093 1472 1890 2047 2042 1885 2159 2500 3096 3273 3306 3489 3488 3539 3519 3481 3333 2906 2803 2507 2337 2120 2068 2069 0 1 0
17 0 0 0 1 123 329 518 656 947 951 2228 2314 2467 2908 3196 3294 3646 3767 3352 3420 3449 3247 2871 2981 2703 2523 2220 2005 971 0 1 1
0 0 0 17 287 399 284 335 285 126 137 218 511 1564 2353 2344 2698 3067 3581 3806 3718 3601 3603 3224 3115 3131 2783 2390 916 111 0 0 1
2 27 335 598 818 792 482 89 91 114 179 153 212 344 426 803 1440 2041 2576 3253 3524 10 277 2121 2394 2463 2392 975 145 2 2 1 2
7 0 1 7 64 163 603 859 822 705 602 685 513 448 334 552 1344 1484 1393 2650 2948 1995 294 1 163 542 275 0 0 1 1 1 1

GFSFLT1_con_sbcape_027.txt.gz
CAPE
167 315 796 1151 1404 1455 1453 1493 2021 2284 3354 4154 4257 4066 4068 3850 4159 2668 2298 2899 1785 1554 1263 1324 3007 3842 3557 3435 3392 3159 3760 2811 2499
44 249 613 1135 1348 1564 1805 1567 2275 2657 3347 3991 4148 3889 4147 4220 4072 3798 2812 3075 3540 2602 2878 1622 3193 3551 3592 3485 3566 3817 3944 2464 3348
0 51 512 1029 1262 1548 2000 1569 1980 2636 3175 3902 4030 3846 4014 4042 4203 4227 3912 4062 4191 3164 3371 3768 3496 3207 3314 3455 3732 3924 4201 3067 3456
0 0 331 935 1261 1418 1742 1770 1674 2103 2863 3658 3994 3889 3921 3903 3963 3977 4178 4005 4245 4148 4237 4479 3894 4220 3691 3721 3817 4065 4275 3806 3485
0 0 150 776 1036 1166 1293 1694 1900 2032 2266 2423 3703 3735 4051 3968 4009 3926 4012 4114 4002 4316 4344 4300 4581 4332 4289 4130 3814 4017 4215 3946 2684
0 0 56 311 800 965 1114 1326 2170 2021 2511 2221 2244 3341 3507 4100 4056 4042 3877 4092 4127 4230 4362 4408 4203 4368 4539 4418 4009 4011 4278 4243 3966
0 2 32 132 156 187 717 1426 2395 2879 2280 2298 2352 2555 2825 3585 4100 4009 4076 4126 4294 4255 4414 4425 4389 4353 4467 4461 4335 3944 3947 4083 4129
0 0 0 0 18 180 611 1795 2852 3022 2312 2731 2641 3274 3276 3466 4075 4280 4353 4339 4309 4348 4407 4411 4463 4443 4410 4591 4420 3556 3926 3769 4018
0 0 0 0 0 0 476 848 2085 2558 3291 2740 2674 3536 3382 3734 4110 4402 4489 4520 4526 4632 4496 4550 4546 4510 4401 4378 4221 2771 1899 2999 3808
0 0 0 0 0 0 47 443 810 1344 2903 3011 3016 3278 3948 3724 4198 4337 4558 4674 4698 4612 4628 4631 4608 4520 4512 4464 4480 2670 1085 1350 3603
0 0 0 0 0 0 0 0 0 1042 1052 3411 3665 3845 3718 4127 4063 4403 4575 4672 4674 4719 4655 4594 4621 4616 4654 4573 4422 3195 744 555 2867
0 0 0 0 0 0 49 0 0 0 962 2517 3614 3745 4143 3918 4196 4402 4563 4605 4630 4678 4648 4635 4556 4629 4671 4642 4540 2790 1140 48 2671
112 23 11 10 0 0 0 8 0 0 120 1393 3443 3843 4067 4257 4447 4460 4573 4618 4731 4720 4705 4654 4486 4562 4620 4280 4652 3862 944 199 2905
703 710 583 258 347 348 84 67 46 978 1129 1539 2618 3011 3685 4483 4609 4724 4678 4693 4812 4855 4804 4512 4685 4583 4602 4683 4501 4576 1249 5 3336
1156 1034 661 102 352 828 417 230 789 2248 2740 2981 3726 3900 4010 4497 4657 4190 4002 4873 4854 4902 4877 4810 4717 4726 4502 4503 4694 3469 2405 0 464
1453 1149 1263 1216 1330 1113 1229 2193 2362 2572 4149 3558 4047 4421 4652 4712 4733 4641 4632 4854 4919 4471 4743 4000 4138 3963 4136 4194 4015 4654 2371 0 0
1467 1383 1379 1330 1707 1942 2432 3376 3110 3281 3674 3198 3057 3641 4194 4268 4311 4509 4511 3660 3951 3761 3608 3680 3727 3495 3869 3434 3942 4136 4602 1725 69
1521 1278 1076 1662 1865 2230 2264 2304 2179 2145 2342 3354 3575 3778 3775 3926 3697 3899 4317 4346 3437 3536 4096 3328 3602 3607 3375 3534 3737 3735 3618 3762 3687
1566 1481 1696 1943 2052 1762 1633 1876 1951 2027 2053 2097 2197 3133 3449 3233 3273 3604 3648 3602 3990 3049 2716 1624 1303 289 839 2875 2539 1258 763 1922 2090
539 729 869 1177 1601 1331 1077 603 1071 1643 1810 1894 1941 2055 1996 1506 857 1348 1514 1930 2167 2288 1413 1296 1835 55 0 0 2 0 1 0 2

GFSFLT1_con_sbcape_030.txt.gz
CAPE
158 473 869 1402 1654 1490 1279 1286 1558 1959 3001 3088 3063 2957 3079 2506 3456 2323 1688 3251 1727 1872 1806 1644 2990 2584 3098 3156 3102 3103 3711 2984 2964
118 218 467 1184 1704 1709 1497 1292 1529 1895 2714 3133 3287 2884 3274 3055 2534 3221 1824 2213 2871 2485 2409 2316 3280 2763 2789 2773 3130 3166 3308 2884 3245
86 225 457 1110 1579 1878 1631 1329 1516 1746 2485 3122 3408 3403 3170 3258 2722 2968 2943 2048 2846 2331 2873 2544 3824 3120 3062 3097 3164 3514 3367 3225 3197
53 391 588 943 1632 1891 1910 1504 1571 1709 1972 3022 3460 3499 3417 3341 3443 2777 2737 2882 2612 3500 2564 4129 2858 4036 3351 3236 3180 3267 3530 3032 2804
24 188 796 886 1334 1817 2105 1843 1646 1802 2064 2646 3305 3699 3697 3477 3495 3648 3254 2546 2862 3135 3921 2935 4060 3603 3444 3431 3123 3209 3183 3222 2415
157 473 549 873 1324 1587 1990 2103 1970 1949 2081 2257 3170 3663 3742 3678 3585 3489 3603 3535 2659 3309 3198 3931 3094 4036 3804 3283 3250 3126 3342 3204 3147
118 655 606 1029 1216 1636 1847 2188 2375 2268 2138 2322 2542 3430 3690 3659 3757 3562 3525 3484 3570 2961 3502 3276 3674 3471 3601 3814 3351 3275 3157 3258 3312
309 592 842 1207 1264 1670 1931 2291 2535 2677 2484 2444 2505 2620 3393 3519 3624 3915 3700 3645 3678 3786 3394 3481 3416 3551 3610 3509 3703 3438 3216 3161 3278
38 71 117 238 494 661 1453 2926 3005 2762 2776 2913 2815 2856 2923 3217 3521 3713 4075 3933 3857 3941 3884 3771 3860 3789 3656 3689 3613 3316 2745 2902 3197
0 0 0 0 87 588 1014 1441 3500 3232 3052 3090 3470 3296 3377 3355 3583 3736 3932 4094 4111 3970 4049 4023 4004 3992 3968 3713 3717 3073 1954 1863 3103
0 0 0 68 0 13 496 162 478 1999 3242 3699 3480 4006 3837 4189 4077 3856 4021 4085 4181 4212 4180 4216 4117 4176 4186 4068 3918 3274 1224 976 2589
0 0 14 35 0 0 882 435 687 1139 1448 3423 3518 3292 3752 3689 4328 4192 4157 4236 4245 4299 4357 4288 4317 4257 4301 4294 4144 3112 1515 192 2216
757 749 991 1329 971 858 455 1589 492 1504 1564 2778 3301 3327 3498 3976 3759 4187 4207 4309 4399 4413 4467 4442 4404 4393 4341 4226 4298 3968 1429 234 2754
841 1165 1278 1301 1348 1315 2392 2410 1692 2935 2489 2116 3228 3455 3777 4181 4460 4157 4249 4444 4552 4550 4572 4530 4490 4442 4442 4398 4297 4292 2332 11 3074
902 1462 1347 982 1414 1474 2031 1850 2288 2773 3552 4227 4239 4593 4149 4479 4705 4231 4280 4578 4752 4632 4558 4545 4496 4534 4467 4443 4476 3913 3657 128 318
1697 2084 1896 1679 2169 2780 3437 3167 4420 4355 4951 4848 4729 5226 4998 4712 4951 4628 4407 4710 4640 4584 4624 4557 4543 4493 4434 4519 4404 4384 3709 1435 0
1314 2315 2031 1510 2116 2816 4430 4845 4804 4775 4964 4386 4626 5171 5377 5159 5109 4847 4702 4555 4590 4536 4459 4452 4428 4257 4309 4216 4120 4178 4155 2273 45
653 1769 2463 3102 3361 2996 2888 2878 2903 2840 3321 4160 4356 4562 4849 5083 4746 4748 4802 4663 3992 4532 4386 4012 4159 4086 3915 3725 4007 900 0 17 1796
733 1106 1526 2364 2724 2215 2400 2309 2241 2574 2555 3146 4330 4902 4560 4356 4096 4431 4137 4403 4407 3757 2245 76 1 0 408 659 0 0 0 1 12
408 693 1158 1434 2050 1523 1488 1406 1637 1846 2142 2597 3213 3229 3725 2297 2100 3069 4577 4418 4767 4480 157 0 0 0 0 0 0 0 0 2 2

GFSFLT1_con_sbcape_033.txt.gz
CAPE
26 52 297 566 414 410 445 605 1201 1941 1794 1780 2074 1814 1250 1068 2080 1264 786 1429 497 1104 961 1402 1423 1807 1956 1627 1745 1815 1386 1602 1654
187 449 743 514 479 505 367 660 1075 1578 1946 1733 1917 1980 1744 1171 1249 2220 805 503 1366 434 1118 765 1471 1612 2268 1800 1729 1663 2062 1791 1523
43 685 324 811 603 579 486 565 994 1178 2068 1849 1840 1744 1933 1720 1260 1456 1854 681 615 1866 665 1100 1044 1711 1621 1958 2060 1903 1738 2169 2068
0 138 890 1059 844 763 676 588 959 1172 1662 2034 2015 1899 1761 1946 1612 1244 1842 1512 648 1244 1583 1424 1300 1936 1664 1901 1858 2275 1931 1733 1999
0 25 769 1287 1159 1057 874 698 890 1090 1365 2098 2160 2203 1887 1988 1990 1769 1324 1950 1718 582 1739 1477 2420 2359 2100 2180 2009 2012 2336 2121 2124
0 41 721 1162 1345 1266 1107 821 812 927 1228 1859 2219 2367 2414 2143 2159 2273 1802 1565 1624 2011 926 2167 1542 2544 2463 2343 2267 2282 2170 2308 2358
0 344 513 1040 1245 1426 1300 991 869 951 1031 1397 2204 2437 2578 2651 2487 2474 2514 2105 1770 1437 2048 1708 2780 1710 2409 2446 2422 2242 2356 2309 2307
96 179 509 825 1231 1414 1494 1258 999 1016 1063 1250 1556 2438 2704 2726 2775 2675 2645 2587 2629 2325 1528 2165 2098 2621 2039 2607 2438 2474 2315 2406 2438
0 174 492 520 845 1291 1528 1582 1341 1209 1204 1333 1473 2166 2581 2837 2856 2818 2753 2772 2619 2784 2599 1892 2427 2369 2369 2601 2805 2799 2165 2396 2513
0 0 0 26 81 647 1400 1659 1735 1635 1555 1465 1618 1742 2251 2680 2840 2868 2934 2844 2871 2730 2798 2864 2405 2305 2697 2430 2728 2714 1607 1540 2588
0 0 0 0 0 0 5 929 1986 1901 1926 1925 1759 1819 1941 2105 2764 2968 2971 3121 2933 3067 2940 3051 3137 2988 2656 3034 2876 2719 1611 760 2332
595 454 492 520 315 479 100 0 355 2330 2402 2445 2527 2180 2309 2298 2664 2814 3000 3062 3331 3248 3282 3200 3236 3324 3266 3186 3244 2762 1843 370 1763
739 865 848 702 542 276 970 701 385 1058 2340 2516 2440 2655 3038 3262 2826 3062 3005 3171 3264 3402 3459 3484 3496 3429 3561 3411 3441 3350 1699 339 2411
998 1165 1132 624 620 445 552 902 311 318 1107 2223 2737 2550 2472 3109 3354 3440 3559 3320 3365 3554 3637 3695 3674 3761 3691 3715 3587 3514 2161 563 2379
638 1680 1452 1210 1122 1358 656 699 392 781 1999 2190 2285 2649 2780 3075 3288 3225 3520 3648 3745 3827 3920 3966 3932 3888 3864 3829 3810 3567 2949 702 235
63 1039 1767 2086 1964 1830 3845 3468 3254 2777 3142 3462 3083 3764 3136 3274 3427 3855 3242 3706 4157 4107 4028 4089 4022 3964 3940 3898 3817 3758 3526 2030 275
146 193 704 1383 2016 2555 2714 2523 2467 2427 2559 2738 3741 3190 4457 3916 4244 4194 3745 4139 4061 4255 4090 4029 3880 3843 3831 3739 3617 3509 1896 989 76
40 0 119 540 868 1697 2241 2193 1916 2070 2258 2413 2604 3779 4594 4446 4370 4238 4287 3839 3584 3820 2900 3485 3766 3709 3392 3242 1531 0 0 0 132
174 153 76 97 495 1269 1753 1527 1337 1341 1879 1963 2414 3672 3907 3891 3825 4130 4099 3932 610 0 36 0 0 364 0 0 0 0 0 1 2
6 109 228 347 746 1235 1230 1255 1286 1302 1707 1759 1817 2279 2785 2974 2723 3361 3416 3748 1958 0 0 0 0 0 0 0 0 2 1 2 1

GFSFLT1_con_sbcape_036.txt.gz
CAPE
180 267 119 257 276 213 159 460 475 351 507 814 1011 906 810 841 807 732 574 224 130 173 722 564 640 1331 1324 1263 1178 1030 762 724 914
321 279 124 196 287 280 209 467 670 565 512 607 1125 1005 1060 1153 1057 915 807 409 335 110 628 959 804 1022 1503 1249 1347 995 1124 849 951
405 447 226 130 269 352 278 504 733 857 809 715 1170 1195 980 916 1008 1509 996 497 435 881 386 721 1172 1045 1526 1441 1289 1162 1247 1258 1052
315 415 319 40 266 407 358 423 721 1252 1189 1058 1320 1490 1424 1131 799 798 1631 818 175 247 779 482 659 1189 1193 1652 1462 1270 1128 1335 1636
130 207 302 157 451 436 421 442 702 1174 1592 1386 1378 1661 1663 1560 1323 856 839 1626 829 335 424 929 505 1218 1288 1429 1677 1616 1420 1285 1502
21 73 302 561 559 449 510 421 633 1025 1589 1665 1543 1562 1555 1560 1565 1302 937 990 1682 1064 439 664 1212 1476 1441 1370 1545 1628 1826 1610 1488
0 146 725 645 668 566 618 474 508 897 1101 1832 1710 1701 1680 1513 1655 1688 1471 1112 995 1666 1357 354 956 1536 1896 1701 1730 1586 1653 1920 1881
0 482 749 756 802 737 747 611 536 907 1068 1493 1874 1903 1921 1823 1634 1817 1925 1774 1299 1147 1336 1655 780 1156 1431 2165 2053 1996 1926 1825 1843
0 448 937 1074 1016 950 940 805 682 843 973 1335 1853 2015 2064 2086 2117 1932 2023 2142 2089 1604 1399 1171 1667 1551 1904 1642 2238 2301 1802 1993 2067
4 273 949 1234 1224 1115 1181 1016 813 822 883 1075 1756 2041 2100 2270 2278 2424 2320 2276 2312 2325 2169 1849 1263 1378 1889 1956 2028 2129 1338 1263 2090
6 0 0 0 491 942 1196 1143 967 864 919 1020 1166 1562 2157 2290 2521 2521 2583 2548 2455 2460 2450 2578 2364 1775 1609 2125 2062 1983 1142 558 1847
154 54 0 62 50 6 239 1394 1383 1191 1068 1123 1207 1324 1447 2298 2495 2782 2740 2672 2688 2654 2681 2566 2587 2665 2382 1954 2062 2077 1317 250 1415
1068 279 17 3 0 126 130 19 866 1605 1490 1497 1417 1423 1599 1654 2243 2617 2780 2794 2795 2878 2764 2798 2710 2667 2778 2735 2591 2195 1165 252 2087
921 1133 791 657 1119 833 67 5 257 1176 1497 1915 1916 1799 1592 1772 1794 2222 2622 2753 2867 2898 3023 2901 2921 2939 2866 2975 2724 2886 1474 160 2202
62 473 1068 1843 2623 2422 2352 1508 1071 1921 1993 1921 1548 1909 2123 2410 2535 2255 2450 2574 2692 2875 2886 3094 3120 3114 3253 3222 3160 2976 2074 443 269
0 2 167 588 1582 1887 1916 1847 1840 1932 1944 2195 2532 2122 2034 2157 2342 2718 2823 2934 2784 2865 3089 3126 3249 3357 3421 3493 3281 3331 2515 1325 101
0 0 6 178 540 1593 1604 1586 1556 1686 1600 1694 2009 2527 2875 2397 2450 2717 2636 3046 3306 3312 3426 3539 3571 3633 3690 3675 3470 3423 1631 540 66
0 0 0 11 303 978 1292 1024 922 858 1260 1368 1735 1908 3100 3574 3090 2814 2922 659 1550 3212 3409 3468 3785 3740 3820 3550 3170 258 0 24 200
0 0 0 37 206 858 1007 901 862 827 1050 1282 1370 1657 2670 3374 3482 3436 2822 185 0 0 0 2 497 831 16 0 0 0 0 0 0
0 0 0 0 36 365 693 589 693 718 979 905 756 1104 549 1935 2894 3501 3013 76 0 0 0 0 0 0 0 0 0 0 0 0 0

GFSFLT1_con_sbcape_039.txt.gz
CAPE
90 37 110 219 160 117 150 146 107 48 124 57 20 37 118 41 0 1 28 29 20 2 117 390 565 905 959 796 691 733 540 316 262
18 18 47 169 235 164 94 104 123 107 147 206 120 115 216 223 148 171 161 55 5 9 71 277 309 714 1067 1020 949 784 668 468 459
22 28 48 116 231 196 127 116 153 160 155 294 335 270 310 392 397 377 352 161 69 0 46 466 469 503 831 1038 1035 863 763 663 539
25 12 55 130 185 217 171 94 273 192 191 219 462 524 487 531 623 613 551 489 202 346 19 306 710 619 719 985 1021 950 853 923 816
13 122 192 204 170 162 215 163 320 391 270 279 371 677 619 665 808 954 998 741 318 157 411 187 335 767 797 971 1113 1041 965 983 1332
0 141 255 281 190 145 264 226 265 595 541 460 383 701 789 735 707 668 874 1369 1151 167 52 365 301 487 790 943 1193 1286 1159 1146 1047
0 14 288 347 198 68 287 295 222 517 863 818 671 810 1013 1090 1072 947 693 661 1132 1183 354 245 512 658 861 975 1055 1333 1441 1413 1265
0 0 176 256 198 70 254 317 278 591 986 1236 1065 1043 1241 1301 1327 1277 1113 845 723 1124 1169 721 575 714 1042 1244 1214 1306 1351 1545 1579
0 0 77 118 231 258 313 349 315 467 967 1495 1438 1341 1325 1329 1265 1373 1382 1250 1012 790 1076 1441 1069 644 849 1216 1574 1679 1290 1415 1527
0 0 36 95 261 396 404 425 381 493 842 1260 1636 1567 1537 1506 1395 1336 1483 1562 1484 1280 973 1010 1301 1402 1038 1003 1102 1361 1029 865 1737
0 0 47 291 457 535 512 556 492 486 869 968 1564 1720 1762 1764 1762 1656 1553 1661 1827 1823 1632 1304 1200 1088 1229 1411 1468 1515 513 386 1483
73 0 0 177 598 657 626 700 638 624 827 988 1302 1686 1868 1950 1982 2001 2048 1992 1933 2063 2107 2101 1949 1732 1332 1135 1339 1422 693 71 1212
755 1241 356 2 128 538 793 740 681 687 834 864 1002 1461 1850 1996 2126 2223 2235 2361 2368 2262 2308 2319 2352 2450 2402 1920 1573 1537 454 5 1413
54 786 1870 1613 433 38 0 265 876 912 887 958 1028 1039 1113 1509 2142 2281 2466 2446 2461 2510 2516 2556 2539 2501 2428 2478 2146 2148 607 10 1541
0 53 546 1455 1585 1567 1532 1203 960 1107 1770 2096 1274 1064 1086 1231 1406 2198 2314 2558 2605 2556 2633 2662 2638 2589 2610 2565 2551 2295 922 34 80
0 0 89 542 1243 1256 1192 1298 1394 1558 1496 2041 1587 1581 1609 1392 1507 1528 1821 2352 2464 2664 2660 2772 2863 2840 2795 2843 2741 2686 1872 261 0
0 0 1 149 730 808 666 593 773 1003 1122 1338 1670 1994 2201 1680 2086 2274 2056 2126 2301 2416 2607 2746 2775 2884 2987 2972 3000 3181 3129 794 20
0 0 0 2 124 589 575 444 502 632 999 1181 1401 1595 2136 2913 2148 1552 1422 1 657 1859 2357 2197 2999 3081 3193 3294 3471 2914 1225 1127 1133
0 0 0 0 0 49 367 280 369 575 691 848 993 1253 1077 1714 2868 2164 141 0 0 0 1 3 429 1718 1244 0 123 0 0 0 0
0 0 0 0 0 7 210 224 288 524 365 358 461 878 707 365 2435 2575 185 0 0 0 0 0 0 0 0 0 0 0 2 2 2

GFSFLT1_con_sbcape_042.txt.gz
CAPE
212 205 180 155 121 84 49 40 0 0 0 0 0 0 0 0 0 0 0 0 0 0 62 314 519 699 822 715 668 722 655 333 339
169 187 174 170 189 143 77 54 16 0 0 0 0 0 0 0 0 0 0 0 2 0 7 223 441 628 927 906 827 844 820 727 719
120 127 38 78 129 111 118 87 89 0 0 6 9 0 0 5 0 0 1 1 0 0 2 255 384 507 795 989 1034 995 920 864 672
72 84 14 8 57 146 109 109 113 49 18 28 28 45 53 88 97 72 117 90 24 0 0 155 332 398 576 899 1069 1142 1067 1121 1018
60 82 49 0 18 107 121 74 94 74 58 65 139 134 148 178 244 266 267 264 128 86 8 145 417 513 565 713 947 1047 1151 1218 1353
0 59 77 43 36 55 123 108 105 115 100 103 197 267 239 247 331 430 445 450 350 184 264 157 265 500 706 776 978 1098 1133 1203 1325
0 4 30 45 67 103 153 164 125 204 153 147 186 397 431 417 482 583 679 682 641 161 271 484 413 498 613 874 1025 1262 1343 1329 1344
0 0 2 32 66 104 144 182 153 374 351 251 253 357 612 602 606 636 697 905 1136 741 287 392 453 578 656 845 1028 1141 1461 1595 1560
0 0 0 7 86 143 115 194 210 388 578 520 428 405 671 758 773 749 710 619 640 1189 1094 853 657 605 739 843 966 891 803 1295 1726
116 0 0 0 57 150 96 224 271 372 652 809 765 681 796 993 1069 1116 1050 931 778 733 1011 1252 1125 856 898 979 1177 1017 444 421 1574
112 121 0 0 90 174 121 244 307 287 723 1184 1148 1069 1100 1235 1295 1299 1308 1288 1192 1041 909 951 1283 1397 1186 983 1025 857 226 104 1201
82 790 0 0 50 177 176 251 306 420 854 1386 1479 1447 1442 1454 1452 1371 1369 1462 1506 1458 1413 1195 1066 1137 1326 1471 1420 693 197 0 1085
93 794 638 1 93 163 209 299 310 575 822 1186 1599 1647 1669 1697 1693 1653 1563 1544 1599 1747 1829 1856 1754 1574 1484 1205 1361 1139 238 0 1148
136 760 1187 395 291 334 316 366 397 638 805 980 1148 1482 1761 1835 1901 1927 1943 1935 1913 1910 2053 2155 2255 2308 2280 2180 1571 1624 459 0 1208
18 283 723 1112 1116 998 596 414 569 677 777 799 771 1117 1610 1885 1995 2128 2201 2225 2322 2404 2364 2405 2478 2510 2562 2576 2654 1794 1347 5 39
0 0 64 470 573 732 900 1123 1411 1588 1539 2000 1072 868 1075 1224 1870 2157 2374 2493 2512 2553 2623 2684 2681 2714 2745 2790 2772 2693 1199 442 0
0 0 0 14 353 401 382 505 781 950 1221 1590 1451 1477 1295 1201 1333 1645 2211 2426 2641 2771 2732 2740 2871 2938 2933 2922 2957 2997 2976 591 92
0 0 0 0 1 133 134 204 401 560 734 1063 1465 1994 2589 1890 1817 1576 1075 7 574 1718 1892 2039 2874 2913 3060 3113 3153 3198 3094 3036 2037
0 0 0 0 3 3 71 82 360 421 401 482 835 1295 1361 2372 2016 1536 78 0 0 0 1 3 695 2061 2096 0 57 2 2 1 2
0 0 0 0 1 1 31 20 24 79 1 42 265 558 572 494 2120 850 22 1 0 0 0 0 0 0 0 0 0 0 2 2 0

GFSFLT1_con_sbcape_045.txt.gz
CAPE
594 673 549 489 380 533 567 654 802 423 694 771 791 856 1183 1374 1575 779 757 1244 722 691 534 768 1422 1933 1927 2112 2230 2225 2196 1979 1986
587 733 662 581 491 527 713 683 735 786 840 811 771 543 1077 1279 1408 1365 990 1538 1246 747 1192 600 1326 1760 1886 1980 2083 2212 2292 2054 2301
406 624 768 691 640 606 748 633 686 748 773 864 867 760 882 936 1221 1322 1374 1376 1444 1406 903 991 990 1783 1893 2061 2097 2225 2394 2086 2313
107 471 703 765 902 910 777 553 685 772 667 908 835 847 882 1011 981 1012 1143 994 1094 1594 1159 1319 1550 1862 1947 2063 2133 2249 2476 2396 2245
1 189 495 755 816 799 818 999 892 766 840 634 821 869 968 975 964 1021 875 1264 997 1387 1669 1389 1620 1702 1908 2031 2060 2141 2333 2266 1998
12 135 307 510 468 750 1095 1075 1097 987 915 651 582 922 636 851 986 909 1311 1427 1385 1450 1605 1718 1325 1560 1775 1998 2002 2122 2237 2312 2378
0 12 182 333 222 582 925 1056 1197 1207 1018 764 770 738 835 1135 1267 1343 1304 1647 1783 1341 1857 1816 1769 1764 1902 1849 1979 2062 2155 2268 2423
0 0 3 264 352 540 874 1188 1149 1237 1160 1205 1034 1297 1210 1335 1479 1609 1765 1940 2011 1762 1741 1976 2018 1905 1743 1827 1801 1703 2128 2343 2521
24 50 1 26 296 654 781 1092 1143 1144 1235 1300 1359 1509 1498 1623 1737 1855 1941 2108 2182 2040 1971 1953 2180 1835 2059 1924 1656 1051 1025 1738 2301
141 209 446 250 3 682 910 1092 1292 1218 1327 1417 1472 1594 1780 1939 2022 2040 2139 2246 2401 2534 2298 2061 2213 1922 1983 2199 2480 1263 436 368 1927
30 118 318 604 314 36 1001 790 881 1246 1277 1571 1595 1726 1892 2128 2198 2173 2260 2320 2382 2575 2514 2608 2519 2198 2295 2304 2526 1517 402 2 1411
3 55 135 922 890 0 849 1049 1360 1520 1703 1732 1747 1837 1961 2215 2324 2357 2427 2402 2402 2197 2084 2151 2419 2321 2486 2460 2532 1196 556 17 1615
39 440 1111 772 180 5 817 1220 1234 1630 1694 2004 2018 2071 2133 2379 2531 2611 2690 2809 2824 2820 2466 2136 2003 2115 2396 2239 2773 1948 50 0 1601
2 194 879 726 493 1038 1222 1450 1471 1814 2099 2312 2170 2078 2183 2717 2819 2899 3000 3114 3202 2839 2631 2832 2669 2494 2596 2474 2288 2423 683 0 1639
0 77 444 1205 946 1092 1336 1591 1766 2029 2344 2713 2950 3037 2941 3118 3159 2587 2569 3165 3028 2937 3163 3000 3135 3051 2973 2859 2858 1850 1264 0 50
0 1 458 816 1357 1547 1500 1284 1848 1997 2184 2723 2936 3202 3315 3159 3136 2929 3356 3169 3201 2857 3061 2919 3036 3047 3095 3130 3242 3415 1507 179 0
0 0 40 581 1039 1281 1545 1891 2122 2286 2479 1972 2390 2995 3261 3299 3268 3058 3269 2930 3001 3016 3088 3125 3180 3257 3318 3375 3540 3684 3662 1950 315
0 0 0 101 534 901 1007 1420 1371 1322 1771 2630 2300 2231 2503 2646 2704 2815 3181 3287 1937 3191 3497 2745 3387 3518 3570 3638 3751 3722 3491 3641 3498
0 0 0 0 21 612 679 723 657 632 585 1228 2390 3255 2691 2139 2068 2194 2730 993 24 0 0 2 499 2364 3266 1243 519 1066 1175 1165 2078
0 0 0 0 0 0 251 308 147 123 424 634 1156 1497 1211 2383 1813 1838 1995 1498 1206 190 0 1 2 3 27 358 6 2 2 2 2

GFSFLT1_con_sbcape_048.txt.gz
CAPE
621 800 892 940 796 543 653 717 653 631 1173 1817 1837 1575 2257 2422 2191 967 978 1494 1062 834 541 546 877 2160 2208 2414 2371 2425 2527 2549 2147
212 672 896 1044 1062 867 690 813 1241 1360 1688 1749 1532 1136 2209 2423 2344 2152 1370 2390 1474 1063 1541 642 866 1173 1930 1920 2205 2440 2495 2037 2485
111 581 905 1044 1107 1086 870 824 882 900 968 1559 1342 1144 1292 1429 1461 2092 1981 1753 2192 1843 1234 1471 948 1358 1414 1604 2092 2312 2612 2125 2365
26 395 869 1063 1116 1135 1074 870 862 970 1047 1205 1362 1469 1710 1711 1429 1377 1615 1517 1629 1792 1766 1660 1930 1414 1365 1792 2232 2401 2644 2476 2122
24 124 577 887 952 1032 1111 1095 941 953 1026 1083 1236 1862 2306 1683 1770 1762 1350 1712 1629 1883 1967 1939 2036 1862 1740 1707 1867 2348 2690 2608 2041
7 58 229 682 725 932 1068 1198 1219 996 991 987 1063 1443 1257 1224 1330 1349 1827 2022 1901 2143 2003 2151 1929 1965 2068 2007 1796 2288 2594 2655 2556
0 3 54 171 563 743 1150 1414 2168 2022 1230 994 956 1163 1172 1775 1623 1701 1582 2437 2457 1906 2442 2265 2220 2153 2122 2178 1877 1826 2270 2471 2643
0 0 12 149 293 734 1627 2038 2512 2154 1441 1699 1418 2055 1288 1994 2458 2441 2509 2778 2746 2336 2708 2456 2427 2413 2252 2235 1948 1534 2124 2096 2195
0 0 0 0 70 329 806 1362 2230 2536 2532 1956 1922 2548 2185 2482 3012 3033 3057 3239 3339 3164 2898 2840 2617 2481 2417 2348 1931 991 835 1200 1818
37 88 123 236 130 79 448 941 1765 2157 2664 2259 2377 2795 2727 2952 3216 3288 3357 3383 3586 3478 3420 3005 2869 2606 2773 3171 3090 1462 514 559 1681
364 334 357 471 548 657 137 544 857 1489 1699 2769 2813 2997 3027 3188 3404 3253 3539 3631 3702 3858 3273 3453 3294 2894 3398 3600 3312 1968 914 29 1936
333 430 568 774 862 924 1124 289 723 1500 1444 2019 2626 2992 3226 3308 3405 3333 3362 3484 3638 3428 3243 3312 3209 2980 3532 3733 3773 1665 1135 137 1993
117 271 526 876 1398 1639 1392 1397 525 1044 1532 1896 2736 2909 3154 3460 3571 3572 3592 3673 3728 3798 3347 3204 2877 2995 3378 2875 3425 2567 326 331 2202
0 20 407 1205 1626 1727 1543 1177 629 2064 2110 2299 2636 2214 2318 3058 3437 3822 3680 4051 4039 3914 3382 3378 3686 3376 3697 3685 3245 3236 772 0 2349
0 0 813 1682 1224 841 699 562 1774 2847 2827 2782 3047 3111 3070 3566 3839 2883 2856 4149 3936 3781 3737 3843 3935 3691 3391 2969 3289 2370 856 0 213
0 0 23 1515 1589 1150 1151 1470 1846 2265 3089 3177 3055 3139 3654 3438 3445 3355 3975 3969 3998 3463 3803 3320 3245 3226 3163 2979 3037 3460 1740 0 0
0 0 0 217 1223 1922 2028 1773 1815 2094 2538 3586 3205 3305 3579 3326 3350 3280 3314 3331 3380 3261 3239 3238 3137 3208 3240 3223 3361 3642 3958 2338 409
0 0 0 0 132 842 1059 1326 1636 2259 2655 2698 2984 3164 3240 3366 3382 3293 3390 3290 1806 3181 3667 2250 3314 3323 3460 3571 3703 3823 3741 3868 4049
0 0 0 0 0 32 279 435 728 1102 1865 2709 2447 2530 2735 2927 2939 3255 3293 3445 1893 0 0 1 55 1029 2129 2609 1364 2206 3066 3091 2962
8 0 3 1 6 2 26 49 72 344 1480 1951 2836 2848 3544 2583 2448 2803 2330 2342 2225 1889 984 0 0 3 97 2045 811 43 300 384 60

GFSFLT1_con_sbcape_051.txt.gz
CAPE
720 765 617 601 625 600 1107 1236 1386 1456 2285 2868 2901 2315 2256 2073 2413 662 194 1373 777 519 336 506 3533 2537 2185 2421 2516 2176 2778 2188 1983
314 713 829 776 683 708 1098 1287 1619 1617 2264 2767 2768 1498 2390 2653 2397 1627 540 1169 2406 1517 1865 634 1654 2309 2203 2234 2041 2811 3266 1823 2405
270 430 769 872 948 845 817 927 1244 1463 1796 2570 2651 2123 2406 2427 2591 2774 2210 2527 3129 2310 2347 2502 1366 1749 1787 2049 2503 2703 3776 2631 3186
57 185 603 842 1017 1122 977 915 1028 1150 1487 2011 2153 2347 2348 2005 1994 2142 2524 2859 3057 3072 2771 3157 2950 2433 2315 2322 2293 2936 3858 3620 2704
0 61 434 842 941 1199 1270 1145 1031 1192 1127 1158 1735 2041 2692 2326 2195 2141 2092 2457 2875 3291 3450 2907 3098 3081 2904 2621 2453 3352 3583 2795 2274
0 12 169 724 880 1081 1263 1352 1578 1113 1165 1016 1084 1970 1926 2295 2079 2342 2095 2737 2721 3223 3449 3601 2322 3304 3539 3035 2723 3310 3596 3690 3175
0 29 251 394 796 831 1145 1776 2251 2114 1383 1050 937 1278 1389 2189 2407 2444 2233 2556 3061 3126 3537 3717 3574 3761 3664 3241 2987 2868 2817 3280 3489
0 0 80 235 573 1427 2261 2289 2718 2621 1750 1961 1413 1795 1665 2160 2647 2528 2676 2586 3199 3256 3579 3629 3930 3955 3740 3527 2637 1963 2839 3314 3494
0 0 0 33 164 430 1319 2423 2816 2886 2535 2340 1938 2258 1966 2160 2715 2756 2765 2826 3277 3643 3760 3838 3987 3941 3918 3638 2164 1290 921 1977 2906
16 21 0 22 0 190 372 906 2405 2488 2939 2418 2639 2836 2491 2717 3146 3153 3179 3211 3544 3763 3865 4080 4223 4114 4035 3977 3793 1517 509 545 1971
745 516 154 223 240 191 110 429 810 1800 2148 3205 3170 2949 3471 3000 3496 3449 3616 3706 3741 3914 3955 4008 4174 4275 4288 4216 4080 2344 833 27 2303
799 830 827 812 808 720 778 332 408 1834 1910 3356 3179 3554 3548 3480 3582 3743 3927 3968 3992 4080 4111 4138 4173 4311 4440 4423 4283 2119 1321 95 2308
885 751 746 898 1020 1057 1130 1254 868 668 1645 2391 3322 3632 3526 3751 3725 3956 4004 4079 4207 4353 4268 4250 3707 4116 4362 4032 4562 3343 507 299 2290
211 533 807 1022 1402 1454 1684 1791 1459 1633 1782 2409 3104 3374 3695 4015 3965 4135 4187 4331 4378 4417 4381 3702 4356 4199 4285 4371 4085 4384 1444 0 3083
0 26 115 602 2126 2244 2229 2223 2653 2735 2327 2741 3370 3622 3712 4061 4235 3789 3599 4467 4458 4488 4489 4468 4624 4512 4312 3722 4499 3252 628 0 460
0 0 1 71 1763 2547 1508 2331 2797 3160 2416 3887 3725 3907 3935 4135 4282 4269 4213 4405 4555 4065 4443 3358 3537 3437 3160 2877 3116 3683 1947 0 0
1 1 0 0 512 2722 2708 2671 2161 2648 4450 4035 4188 4149 4092 4254 4222 4268 4206 3681 3740 3253 3162 3215 2913 2935 2661 2370 2267 2077 2842 1688 117
1 3 1 2 2 96 523 1268 1968 2388 3221 3887 3525 4077 4137 3934 3618 3404 3952 3968 2808 3337 1051 1572 2920 2239 1834 1579 2063 1879 2164 3008 3276
6 0 1 1 1 4 4 5 2 4 397 3651 3524 3696 3336 3481 3036 3404 3548 1957 1136 0 143 1 3 3 465 2520 387 1710 1031 3030 2743
19 3 7 8 11 6 8 2 1 2 11 1187 3270 3343 4075 3341 2895 3269 3721 3442 2749 2176 128 2 3 0 0 0 143 3 209 408 1170

GFSFLT1_con_sbcape_054.txt.gz
CAPE
96 723 620 604 585 616 567 473 632 762 1417 1445 1507 2029 1329 1464 2130 983 1259 2149 1395 2169 1929 1830 2625 3166 2742 3324 3277 3199 3339 2713 2754
46 52 443 598 714 681 715 722 714 1073 1431 1685 1808 1462 1878 1168 1967 1786 757 1615 2109 2256 2074 1772 2696 2876 3369 3243 3213 2918 3410 2710 2901
8 91 35 295 776 822 1007 872 1026 1056 1552 1737 1959 1688 1740 1488 991 1543 1617 601 1661 1628 2803 2596 2857 3060 2878 3165 3395 3274 3465 2930 2992
2 94 153 154 150 1012 1063 1091 1297 1119 1400 1866 2135 2123 1659 1501 1263 1185 998 1587 538 2529 1910 3855 3283 3613 3248 2900 2952 3459 3681 3107 2973
280 467 328 86 3 0 1083 1184 1218 1315 1268 1882 2069 2188 1804 1581 1615 1224 1139 644 2176 1973 3313 2782 4287 3302 3819 3032 3009 3089 3202 3196 2062
55 570 51 2 27 101 1104 1105 1250 1424 1361 1300 1981 2277 1914 1863 1650 1748 1662 1189 1175 2358 2180 3048 2535 3637 3050 3246 2682 2857 3185 3198 2892
10 156 238 176 626 645 1263 1284 1312 1360 1449 1385 1437 1953 2027 1992 1752 1659 1390 1862 1282 2126 2709 2522 2796 2762 3212 3106 2704 2534 2972 3272 3160
66 102 68 192 346 418 1158 1799 1649 1516 1555 1379 1386 1682 1753 2001 2214 1902 1685 1705 1943 1549 2086 2545 2854 2844 3113 3108 2845 2330 2499 2735 3191
0 0 149 197 25 1758 1548 2064 1888 1790 1680 1619 1498 1521 1664 1893 2166 2090 2106 1799 2045 2206 2128 2561 2852 3060 3067 3275 2767 2065 1410 2084 2401
0 0 2 182 257 271 641 1589 2168 2072 1936 1831 1735 1803 1791 1901 2309 2451 2165 2374 1919 2436 2329 2526 2847 3080 3255 3273 3198 1901 836 774 2043
0 0 1 1099 140 367 653 266 719 2562 2392 2202 2221 1977 2279 2047 2384 2385 2499 2294 2424 2131 2523 2550 2877 3142 3273 3424 3349 2566 712 59 1335
0 0 0 905 615 659 1229 1172 1263 2358 2883 2484 2354 2372 2372 2304 2224 2420 2405 2376 2355 2335 2675 2848 2888 3135 3417 3450 3497 2670 1701 3 979
20 940 941 792 689 688 853 1270 1232 1326 2195 3019 2364 2375 2543 2829 2210 2706 2564 2542 2575 2650 2837 2980 3009 3127 3307 3348 3558 3003 1102 102 1820
493 531 741 820 1008 1273 1527 1620 1660 1702 1644 2152 3102 2493 2780 2977 2880 2731 3071 3139 3107 3104 3238 3218 3306 3238 3357 3659 3534 3667 1094 0 2155
377 382 330 456 892 1158 2187 2540 1881 1847 2287 2431 2962 3323 2850 3679 3587 2973 3346 3522 3649 3570 3543 3678 3616 3723 3757 3767 4011 3189 863 1 227
131 31 78 94 531 1512 3364 2682 3210 2236 2616 2982 3897 3794 3215 3605 3701 3731 3423 3774 3781 3831 3852 3758 3636 3715 3632 3672 3660 3825 2328 73 0
1 2 2 0 78 342 344 351 1085 3584 3098 3370 3458 3567 3681 3589 3948 3792 3537 3840 3786 3880 3805 3834 3734 3391 3566 3436 3526 3561 3803 424 0
4 3 3 2 5 5 4 2 325 845 1252 3149 2842 3926 3705 3573 3695 3430 3814 3499 3727 3797 3668 3404 3514 3361 3147 3445 3215 2911 2629 2686 1940
6 9 10 5 2 2 3 4 4 34 333 992 4105 3749 3693 3488 3568 3615 3744 3301 1740 0 481 53 771 1215 2679 786 295 354 124 492 2136
20 17 14 3 6 3 1 4 8 3 4 249 2055 3896 3632 3519 3242 3436 3553 3159 1851 645 0 1 2 8 913 1509 239 56 2 0 7

GFSFLT1_con_sbcape_057.txt.gz
CAPE
349 207 0 276 214 171 95 161 119 245 325 675 712 250 166 444 699 75 352 867 913 1217 1296 1106 1678 1463 1623 1302 1659 1578 1536 1214 1369
46 84 316 89 341 237 208 202 170 217 309 312 822 647 90 261 1079 116 176 370 495 349 736 977 1244 1719 1494 1751 1759 1748 1760 1125 1596
462 518 521 423 397 325 212 233 223 241 410 327 689 745 521 99 352 931 106 149 394 571 274 625 1352 2050 1564 2008 1706 1412 2002 1204 1633
518 260 419 291 315 379 83 202 202 322 682 517 556 515 809 321 106 697 610 168 6 522 392 1753 1927 1931 2022 2111 2007 1829 1669 1396 1798
411 393 408 283 194 205 51 133 342 320 548 816 800 728 621 803 248 226 565 397 69 0 613 660 1857 1964 1846 1746 1709 1986 1911 1865 1770
334 370 329 50 84 189 199 104 298 502 473 899 996 1067 713 845 671 136 368 149 317 15 735 548 1455 1720 1742 1760 1650 1598 1868 1879 1865
44 457 262 127 76 55 36 26 159 492 501 752 1002 1155 1189 911 749 660 78 122 1 740 283 1849 1404 2100 1609 1803 1422 1676 1723 1977 2033
0 19 128 19 13 2 309 154 295 415 658 525 1020 1223 1322 1167 914 661 630 204 143 0 1117 553 1430 1498 2090 1720 1858 1525 1573 2132 2081
0 0 0 0 0 0 150 74 28 0 351 692 636 1271 1422 1327 1102 891 772 741 846 212 107 1461 1011 1247 1637 2087 2048 1943 1502 1539 2072
0 0 0 0 0 29 35 3 6 0 1 833 815 857 1344 1360 1202 1191 909 835 715 1025 328 465 1497 1633 1728 1780 2102 2001 1500 927 1435
0 0 0 150 35 376 394 304 6 0 5 193 911 924 1062 1285 1321 1324 1278 1106 843 942 1089 740 830 1423 1814 1880 1969 2190 1108 477 769
0 0 0 7 0 7 399 187 1 0 3 4 0 1012 1030 1268 1295 1355 1464 1176 1200 898 1195 1311 1113 1466 1768 2020 2101 1986 1415 35 39
0 0 0 0 0 0 61 564 29 1 2 0 14 244 1299 1237 1231 1493 1494 1419 1236 1425 976 1133 1515 1368 1700 2067 2151 2072 1049 19 898
0 0 0 52 178 154 287 504 747 488 168 38 889 1105 1448 1638 1309 1491 1544 1589 1461 1369 1462 1263 1365 1623 1648 2009 2133 2333 1066 8 1504
0 0 0 81 60 54 140 692 581 1084 852 841 1542 1854 1660 1543 1636 1472 1696 1559 1586 1486 1473 1513 1533 1794 1885 1928 2283 2201 1405 73 80
0 0 0 0 0 0 88 141 204 674 859 1528 1730 2453 1871 2177 2314 1578 1843 1733 1703 1746 1766 1777 1934 1980 2101 2152 2258 2587 1558 233 0
1 0 0 0 5 37 24 0 0 177 486 712 1310 2422 2874 1945 2463 2187 1636 2280 2052 2170 2215 2222 2134 2275 2266 2377 2398 2616 2936 284 0
4 0 0 0 1 0 0 0 0 0 1 17 521 1770 2922 2514 2455 2270 2248 2440 2469 2514 2532 2486 2441 2407 2439 2397 2601 2477 2714 2581 1235
4 2 1 0 0 1 1 0 0 0 0 0 27 933 2284 2849 2350 2550 2660 2389 241 2 162 701 1924 2467 2565 2543 1055 2242 2350 1739 1467
26 17 10 4 4 1 3 0 0 0 1 2 2 405 1874 2833 2408 2618 2705 2621 1791 877 1 2 2 1 960 1235 1166 23 0 0 44

GFSFLT1_con_sbcape_060.txt.gz
CAPE
14 25 0 118 128 25 0 23 61 361 336 205 138 220 292 384 13 0 152 222 593 919 1145 1224 1396 955 1042 1185 831 712 672 797 724
20 46 184 294 148 51 7 11 31 122 383 212 108 81 38 208 626 61 9 486 691 756 882 799 1296 964 1089 977 1079 897 841 645 738
81 388 332 400 191 97 78 96 33 30 163 346 302 112 5 11 189 678 0 10 215 598 603 743 961 1186 1012 1024 1031 1070 1030 653 811
148 392 334 382 327 153 169 159 143 109 40 98 502 469 185 2 15 241 461 0 0 96 145 273 656 1344 1083 1131 1214 899 1302 833 732
191 162 378 351 360 295 180 187 162 184 168 120 96 532 451 187 0 38 520 378 1 0 117 618 1051 1464 1244 1201 1351 1048 879 1163 1128
333 418 382 196 38 0 0 41 211 240 300 279 144 267 459 442 121 0 95 463 236 0 0 75 1342 1429 1549 1378 1376 1400 1240 1103 1103
309 240 189 16 36 28 8 0 2 97 246 519 363 270 387 461 566 149 0 111 271 201 0 0 377 1483 1365 1298 1295 1259 1375 1233 1174
8 119 111 0 0 0 0 0 0 26 158 418 611 538 543 394 572 611 176 0 107 2 163 13 134 856 1379 1346 1206 1090 965 1139 1221
0 0 0 0 0 1 53 1 0 45 59 250 788 820 810 785 499 662 608 207 0 0 0 337 194 984 1237 1234 1418 1207 1136 1163 1292
0 0 0 0 0 56 177 90 22 23 3 0 167 903 950 1019 990 757 633 578 218 27 4 0 527 327 1080 1461 1358 1388 723 777 1180
0 0 0 0 0 0 12 29 56 22 0 19 5 47 1027 1252 1216 1065 823 618 634 430 322 11 0 718 525 921 1402 1652 677 368 857
0 0 0 0 0 0 57 7 12 3 138 88 15 0 3 803 1450 1253 1039 825 718 700 749 602 37 293 1242 1078 1026 1051 675 26 649
0 0 0 0 0 0 10 387 69 15 98 203 14 0 7 0 578 1320 1160 1090 891 839 695 791 784 428 375 1129 1495 1288 468 1 1025
0 0 0 0 0 0 39 145 71 14 18 8 8 3 0 40 73 736 1269 1221 1166 1061 928 823 948 945 790 893 1135 1324 374 0 1190
0 0 0 0 0 0 4 154 310 694 405 243 54 0 1 26 154 612 1159 1267 1289 1160 1150 986 849 1077 1226 1075 1235 1232 510 1 58
0 0 0 0 0 0 0 90 36 12 155 572 531 422 784 505 1178 1294 1136 1251 1255 1256 1162 1319 1194 945 1061 1357 1386 1518 769 18 0
0 0 0 0 0 0 0 0 0 0 0 0 10 89 310 1340 1640 1594 1262 1220 1183 1353 1310 1268 1324 1330 1270 1328 1525 1640 1831 340 0
0 2 0 0 0 0 0 0 0 0 0 0 2 1 71 717 1635 1137 1524 1390 1365 1342 1421 1380 1370 1356 1419 1493 1611 1701 1869 2001 1339
0 0 3 3 0 0 0 0 0 0 0 0 2 3 2 569 1995 1809 2020 1532 402 1 78 677 1055 1076 1575 1697 1710 1849 1878 1760 1475
0 2 55 13 0 0 0 0 0 0 0 0 1 2 3 4 647 2315 2202 2347 1487 1240 1 2 2 27 690 1652 1957 866 1366 1472 617

GFSFLT1_con_sbcape_063.txt.gz
CAPE
127 19 46 92 0 0 0 0 1 217 45 3 36 18 4 0 0 3 52 88 81 333 626 976 965 747 802 673 486 676 370 701 603
196 182 163 146 42 3 0 0 2 167 115 0 29 44 9 4 0 0 0 68 144 222 576 862 950 843 840 886 834 592 488 597 613
276 281 215 38 87 1 0 30 32 114 168 81 27 49 34 44 80 4 0 0 216 396 501 569 832 1007 723 863 908 828 611 537 447
149 13 44 59 22 45 8 36 48 94 150 144 89 85 63 7 4 195 76 0 0 51 323 462 514 1005 941 785 883 885 903 732 507
0 54 70 274 185 51 46 17 8 31 114 193 149 95 71 0 0 0 251 19 0 0 0 2 209 562 1031 886 907 851 949 1097 1076
330 230 39 0 0 1 0 8 21 1 9 52 144 194 135 43 0 0 0 154 75 0 0 0 269 609 996 913 907 1006 812 831 1016
52 126 0 0 0 0 0 0 0 0 1 33 37 125 301 224 84 0 0 0 46 42 0 0 0 870 1139 1143 986 1059 1116 991 885
0 0 0 0 0 0 0 0 0 0 0 3 42 35 161 307 267 105 0 0 0 0 0 0 0 73 1091 1112 1140 1172 1115 1200 1137
0 0 0 0 0 0 0 0 16 0 0 0 146 152 108 212 292 299 93 0 0 0 0 0 0 0 56 974 1210 1236 1129 1144 1120
0 0 0 0 0 0 0 0 7 25 0 9 234 325 227 224 263 312 433 186 0 0 0 0 0 4 132 200 727 1156 797 344 901
0 0 0 0 0 0 0 0 0 30 30 3 18 524 508 451 466 306 416 475 208 0 0 0 0 0 24 385 538 748 534 130 615
0 0 0 0 0 0 0 0 90 113 36 91 68 49 287 736 721 713 465 499 478 348 53 0 0 0 0 4 250 580 321 0 367
0 0 0 0 0 0 0 0 0 2 3 122 136 53 12 8 417 952 910 728 561 494 384 217 85 1 0 0 134 107 59 0 743
0 0 0 0 0 0 0 0 0 0 18 25 24 19 11 0 4 12 928 988 766 617 548 532 513 461 84 0 221 576 0 0 713
0 0 0 0 0 0 0 0 0 0 2 28 372 431 21 2 2 45 153 379 1028 845 680 536 564 569 607 490 184 238 127 0 22
0 0 0 0 0 0 0 0 0 1 0 0 1 5 29 211 427 41 49 274 649 1149 1055 904 790 703 710 787 764 611 70 0 0
0 0 0 0 0 0 0 0 0 0 0 0 0 1 5 3 18 400 1077 898 739 779 1200 1193 1093 983 874 781 918 1020 933 18 0
8 10 1 0 0 0 0 0 0 0 0 0 0 0 1 0 2 181 1052 1196 1000 1064 1164 1215 1207 1162 1105 917 843 937 1148 1213 760
2 16 1 0 0 0 0 1 0 0 0 0 0 0 0 0 2 2 171 1312 978 1 236 829 771 864 1113 1179 949 986 916 884 1032
7 6 2 7 0 1 3 0 0 0 0 0 0 0 0 0 0 2 13 613 1686 1219 79 2 1 0 76 255 1167 617 799 336 227

GFSFLT1_con_sbcape_066.txt.gz
CAPE
320 358 231 139 8 0 0 0 0 0 0 0 0 0 0 0 0 14 38 49 49 105 403 739 885 820 659 497 543 447 248 621 937
196 149 191 103 51 0 0 0 0 22 0 0 0 35 0 0 0 0 7 30 66 89 307 627 906 707 774 695 553 640 632 613 639
23 59 5 50 44 0 0 0 0 34 50 0 15 79 22 0 0 0 0 0 55 182 249 528 853 1012 844 857 1037 637 663 589 573
0 140 166 106 58 0 0 0 0 6 96 72 43 78 59 19 0 0 0 0 0 208 325 439 637 981 949 888 863 1069 852 796 721
76 16 97 177 86 24 0 0 0 0 39 66 37 41 57 15 18 36 0 0 0 0 150 278 651 699 1005 929 897 749 1093 1036 1143
0 0 0 0 0 11 0 4 1 0 1 62 20 11 56 10 0 0 108 49 0 0 0 0 93 409 755 1037 1036 1039 1053 1152 1267
0 0 0 0 0 0 0 0 0 6 11 0 17 21 18 8 3 0 0 17 25 0 0 0 0 233 549 895 976 1065 1147 1034 1119
0 0 0 0 0 0 0 0 30 31 0 18 15 78 107 50 2 0 0 0 0 32 0 0 0 8 496 947 1075 974 1165 1220 1139
0 0 0 0 0 0 0 0 0 0 5 0 39 46 97 269 180 59 0 0 0 0 22 0 0 0 71 594 927 1102 865 990 1320
0 0 0 0 0 0 0 0 0 0 1 39 1 101 121 125 301 289 209 24 0 0 0 5 0 0 0 163 481 561 719 311 1242
0 0 0 0 0 0 0 0 0 0 24 27 20 60 248 182 175 275 321 300 27 0 0 0 3 8 3 2 73 156 74 28 737
0 0 0 0 0 0 0 0 0 0 1 3 75 75 120 502 296 260 277 369 430 175 0 0 0 0 1 37 62 0 0 0 382
0 0 0 0 0 0 0 0 0 0 0 0 10 61 66 33 119 647 500 283 401 417 322 85 2 9 0 0 18 0 0 0 189
0 0 0 0 0 0 0 0 0 0 0 0 62 214 92 12 4 35 789 813 561 571 545 507 297 150 90 0 0 9 0 0 273
0 0 0 0 0 0 0 0 0 0 0 0 27 3 2 13 8 5 131 392 992 769 619 546 567 509 429 284 18 0 0 0 4
0 3 0 0 0 0 0 0 0 0 0 3 0 0 0 1 2 102 89 137 207 991 942 830 746 710 699 769 733 226 0 0 0
10 11 5 0 0 0 0 0 0 0 0 7 0 0 0 0 2 3 37 376 192 195 865 1045 1022 905 873 815 830 867 742 2 0
12 6 14 13 4 2 3 2 0 0 0 15 0 0 0 2 3 6 2 202 602 674 338 754 1166 1136 1105 1011 934 961 877 605 186
12 13 15 18 2 0 4 0 2 1 1 12 0 1 1 1 2 2 6 6 74 456 269 95 37 858 1114 1219 903 707 562 545 215
17 21 21 25 16 5 5 2 4 1 11 0 0 0 2 1 1 2 3 6 6 69 393 2 2 0 3 457 1131 461 408 251 0

GFSFLT1_con_sbcape_069.txt.gz
CAPE
448 753 558 380 254 249 355 365 440 438 429 538 614 776 1214 1353 1136 1014 1057 1390 1089 1234 1312 1544 2111 2235 2207 1981 1900 1742 1819 1838 1754
269 684 759 572 373 317 370 437 495 508 563 589 566 623 1069 1072 1107 1101 1215 1262 1352 1132 1481 1356 1933 2203 2228 2053 1981 2009 1944 1596 2049
98 354 799 753 535 294 334 447 491 496 603 675 687 603 743 755 789 989 1106 1288 1489 1385 1495 1673 1643 2012 2194 2241 2218 2110 2101 2001 2009
295 561 390 703 669 458 364 324 372 418 537 626 627 591 900 789 629 617 814 862 1244 1572 1684 1791 1922 2067 2085 2279 2256 2356 2320 2108 1938
0 4 82 445 558 334 346 319 291 302 435 489 519 802 1069 816 900 676 578 690 816 1328 1645 1730 2003 2066 2222 2354 2287 2343 2425 2296 1868
0 0 0 0 0 0 164 323 281 189 252 414 337 518 560 746 749 751 740 812 726 876 1186 1596 1611 2152 2298 2389 2390 2456 2412 2378 2335
0 0 0 0 0 0 0 1 83 270 259 214 376 415 336 630 578 780 865 1340 1055 798 1085 1121 1304 1621 1928 2323 2436 2434 2400 2437 2484
0 0 0 0 0 0 0 0 0 2 76 98 301 555 587 620 863 795 500 758 1435 1121 946 1078 1175 1143 1272 1525 1639 1670 2190 2370 2371
0 0 0 0 0 0 0 0 0 0 6 37 144 213 664 912 1203 1202 1141 1070 1005 1412 1179 1057 1165 998 1053 1170 935 478 853 1625 2183
0 0 0 0 0 0 0 0 0 0 10 37 142 239 215 644 1021 1174 1335 1011 1095 1315 1310 1386 1256 1015 1125 1398 1557 475 238 404 1548
0 0 0 0 0 0 0 0 0 0 0 0 23 614 233 466 830 954 1170 1062 1144 1274 1062 1303 1374 1126 1209 1336 1209 432 4 0 1314
0 0 0 0 0 0 0 0 0 0 0 0 0 90 532 774 805 880 934 1085 1469 1158 912 977 988 993 1197 1221 1236 73 0 0 927
0 0 0 0 0 0 0 0 0 0 0 0 0 2 74 229 659 464 1256 1096 1188 1249 1230 980 817 723 861 721 1257 488 0 0 295
0 0 0 0 0 0 0 0 0 0 0 0 0 0 75 22 48 402 365 605 1576 1317 1299 1335 1298 1025 1069 1062 794 939 0 0 455
0 0 0 0 0 0 0 0 0 0 0 0 0 0 7 0 6 40 255 537 424 1635 1825 1864 1679 1673 1320 1057 1152 189 76 0 0
2 7 6 8 6 7 0 1 5 3 3 5 0 0 9 2 0 10 40 438 611 681 965 1674 1893 1603 1488 1563 1491 1270 0 0 0
11 10 10 11 16 19 11 4 6 5 3 12 6 0 9 3 0 4 10 37 214 474 573 976 1394 1668 1644 1633 1701 1673 1555 295 3
5 12 7 7 8 17 24 23 10 7 2 5 15 3 7 18 0 1 9 5 21 412 836 695 693 1187 1525 1455 1667 1603 1365 1410 1225
0 5 24 34 28 27 27 25 24 13 8 19 25 17 9 14 7 2 7 6 0 0 0 17 149 101 162 1234 1140 1018 859 656 597
28 18 27 31 36 35 28 27 22 26 14 19 40 22 33 19 11 8 7 5 8 2 0 20 24 3 2 0 52 45 312 20 0

GFSFLT1_con_sbcape_075.txt.gz
CAPE
1103 1025 850 697 805 644 581 652 273 441 1296 2192 2056 1999 2279 2687 2424 1598 1226 1593 1605 1325 1704 1041 3035 1932 1633 1725 2089 1784 1836 1829 1345
183 1179 809 900 641 1000 564 665 643 661 1826 1898 2132 1953 2238 2597 2612 2393 1577 2537 1702 1506 2317 1122 2014 1866 1781 1761 1773 1987 2437 1585 2173
363 190 37 6 207 672 749 693 765 481 910 1773 2083 1979 2016 2099 2246 2383 2085 1587 1909 1709 2042 1443 1366 1940 2027 1778 1698 1846 2244 2598 2505
0 2 3 0 1 0 75 136 900 946 1006 1396 1955 1988 1999 2109 2099 2163 2277 1847 1771 1909 1588 1752 1735 2864 2198 2143 1980 1936 2756 3138 2086
0 0 0 3 4 6 0 0 1 157 1071 1208 1479 1734 2399 1951 2030 2103 1980 2193 2029 2325 2458 1825 2050 2121 2199 2248 2192 2502 2685 2136 1509
0 0 0 0 0 0 0 2 2 0 184 623 1055 1625 1563 1828 1846 1952 2001 2073 2101 2704 2557 2298 1505 2247 2553 2055 2101 2900 2758 2816 2196
0 0 0 0 0 0 0 0 2 2 0 162 423 1074 1321 1656 1841 1877 1857 2308 2750 2044 2923 2599 2451 2408 2850 2526 1935 2065 2358 2781 2666
0 0 0 0 0 0 0 0 0 1 0 6 7 216 1187 1760 1709 2046 1774 2240 2894 2595 2847 2764 2648 2670 2765 2404 2123 1505 2798 2687 2676
0 0 0 0 0 0 0 0 0 0 0 0 1 0 150 1341 1479 1827 2315 2297 2282 2810 3027 3201 3276 2544 2659 2666 1419 855 875 1732 2822
0 0 0 0 0 0 0 0 0 0 0 0 0 0 0 14 565 1545 1633 2404 2471 2712 2734 3027 3600 3194 2843 3115 2970 1033 183 757 1622
0 0 0 0 0 0 0 0 0 0 0 0 0 0 0 0 0 113 847 1985 1945 2373 2610 2612 2996 2997 3528 3591 3104 1548 522 30 2208
0 0 0 0 0 0 0 0 0 0 0 0 0 0 0 0 0 0 27 81 1275 2609 2367 2242 2243 2547 3291 3621 3618 1795 850 0 1263
0 0 0 0 0 0 0 0 0 0 0 0 0 0 0 0 0 0 9 22 0 832 2333 2165 1960 2321 2564 2469 3268 2538 1463 0 1389
0 0 0 0 0 0 0 0 0 0 0 0 0 0 0 0 0 0 0 2 0 66 629 2011 2264 2031 2527 2968 2692 3073 1291 15 1671
0 0 0 0 0 0 0 0 0 0 0 0 0 0 0 0 0 0 0 0 0 1 71 424 2001 2668 2532 2896 2797 1916 1591 24 39
0 0 0 0 0 0 0 0 0 0 1 7 6 2 1 0 0 0 0 0 0 0 75 101 190 1621 1894 2227 3007 2149 1475 47 0
0 0 1 2 3 3 4 8 5 1 1 4 4 5 1 0 0 0 0 0 0 0 0 0 0 374 1741 2073 2663 3092 2335 1792 66
6 2 2 2 4 7 10 11 11 11 9 6 4 3 0 0 0 0 0 0 0 0 0 0 0 5 82 166 243 1620 130 0 228
4 17 10 4 6 9 13 9 12 13 14 20 15 6 0 0 0 0 0 0 0 0 0 0 0 0 0 0 0 0 0 0 0
5 27 16 10 6 10 9 9 9 12 11 13 25 16 15 8 4 1 0 0 0 0 0 0 0 0 0 0 0 0 0 0 0

GFSFLT1_con_sbcape_078.txt.gz
CAPE
1182 1005 646 651 489 826 435 171 225 1220 1993 2258 2359 2248 2613 2526 2665 1995 1633 713 1731 1120 320 1303 2102 2417 2930 2915 2650 2695 2911 2856 2748
197 161 24 216 756 940 452 568 284 1275 2252 2597 2599 2383 2800 2718 2545 2294 2486 2568 3304 1543 593 1724 1514 2138 2569 2709 2001 3076 2801 1935 2514
1 5 6 2 26 240 340 747 380 1303 2217 2571 2611 2417 2584 2731 2769 2979 2838 2997 3087 2817 625 233 343 419 1529 2784 2104 2290 2609 2735 1292
0 1 3 3 2 4 3 108 327 49 1933 2534 2677 2628 2545 2543 2605 2780 2827 2833 3232 2870 2394 527 24 0 0 1387 2734 3045 2972 2205 1847
0 0 0 3 2 4 4 2 0 0 192 231 2215 2439 2574 2634 2798 2771 2920 2873 2868 3315 3148 2959 923 0 8 1454 2456 2515 2862 2413 2095
0 0 0 0 6 2 3 3 3 3 3 1 22 739 2499 2592 2534 2820 2833 3131 2910 3163 3237 3145 2555 2655 3267 3096 2424 2679 2368 2858 2826
0 0 0 0 0 0 0 1 3 1 6 1 7 3 367 1255 2376 2389 2425 2940 2987 2790 3321 3007 2781 2901 3099 2794 2901 2863 2644 2683 2957
0 0 0 0 0 0 0 0 0 0 1 1 2 2 55 50 133 2389 3128 2904 2707 3013 2910 2960 2987 2886 2644 2841 2499 2046 2613 2977 2803
0 0 0 0 0 0 0 0 0 0 0 0 0 0 3 0 343 857 1377 2278 2629 3405 3012 2943 2802 2880 2788 2523 2362 1350 873 2093 2694
0 0 0 0 0 0 0 0 0 0 0 0 0 0 0 0 1 7 286 1540 2471 3029 2994 3037 2933 2888 2845 2796 2660 1643 245 159 1933
0 0 0 0 0 0 0 0 0 0 0 0 0 0 0 0 0 0 29 295 81 939 2534 2778 2769 2670 2853 3051 2905 2134 1559 154 961
0 0 0 0 0 0 0 0 0 0 0 0 0 0 0 0 0 0 0 40 54 85 718 1938 2238 2231 2442 2785 2984 2359 1382 704 956
0 0 0 0 0 0 0 0 0 0 0 0 0 0 0 0 0 0 0 0 0 11 164 490 1574 1961 2189 2058 2505 2682 2099 252 1337
0 0 0 0 0 0 0 0 0 0 0 0 0 0 0 0 0 0 0 0 0 1 2 72 539 698 1930 2037 2185 2398 1849 453 1799
0 0 0 0 0 0 0 0 0 0 0 1 0 0 3 5 3 0 0 0 0 0 0 1 122 352 1016 1769 2197 2163 1676 819 22
0 0 0 0 0 0 0 0 0 0 12 9 10 10 6 1 0 0 0 0 0 0 0 0 0 20 16 460 1611 1923 2011 1378 0
0 0 0 0 0 0 0 2 1 1 8 16 13 12 11 8 1 0 0 0 0 0 0 0 0 0 1 549 1754 1896 2089 1848 569
0 0 2 0 0 1 3 8 8 1 10 7 1 3 2 0 0 0 0 0 0 0 0 0 0 0 0 0 0 610 73 3 0
0 1 6 3 1 1 4 7 8 22 21 15 3 0 0 0 0 0 0 0 0 0 0 0 0 0 0 0 0 0 0 0 0
6 5 14 0 1 4 3 6 10 17 18 16 12 5 4 1 0 0 0 0 0 0 0 0 0 0 0 0 0 0 0 0 0

GFSFLT1_con_sbcape_081.txt.gz
CAPE
100 186 280 173 134 201 204 82 185 274 343 1093 1122 665 959 805 803 415 320 338 189 649 262 837 1094 1485 1368 1134 1029 1123 1181 995 1360
83 171 101 306 146 43 246 46 85 330 595 916 1243 957 1193 1125 860 829 345 15 31 580 63 791 766 778 1319 1276 1227 1181 1392 857 1094
0 3 22 14 1 0 6 84 137 729 998 1087 1328 1430 1507 1578 1710 1293 1106 886 917 700 633 506 174 34 151 917 1257 1524 1336 1091 935
0 1 4 7 6 2 1 0 3 58 102 521 1193 1457 1524 1567 1618 1510 1299 1376 1400 824 389 27 25 3 0 38 1070 1233 1238 1006 1074
0 2 2 3 3 2 1 2 1 2 3 2 0 1 602 1541 1740 1733 1628 1608 1264 1357 589 388 44 0 0 0 615 1227 1327 1166 1107
0 0 0 0 0 1 2 2 1 2 2 1 2 0 25 400 1454 1674 1592 1681 1803 2014 739 190 0 0 0 357 750 1111 1388 1311 1598
0 0 0 0 0 0 2 6 4 2 5 4 3 0 0 35 9 81 697 1744 2113 2108 2094 1533 1134 1179 1129 1240 1281 1199 1591 1373 1209
0 0 0 0 0 0 0 0 0 0 0 0 1 0 0 2 28 0 0 150 1048 1944 2085 2169 1962 1656 1890 1715 1557 1801 1821 1541 1213
0 0 0 0 0 0 0 0 0 0 0 0 0 0 0 0 0 111 176 110 356 1005 1547 1924 2117 1975 1802 1716 1896 1493 1477 1567 1735
0 0 0 0 0 0 0 0 0 0 0 0 0 0 0 1 1 0 0 64 38 18 1008 1455 1800 1921 2049 1803 1660 1768 842 154 1367
0 0 0 0 0 0 0 0 0 0 0 0 0 0 0 0 0 0 0 10 11 0 112 494 1527 1388 1534 1785 1941 2001 1722 738 5
0 0 0 0 0 0 0 0 0 0 0 0 0 0 0 0 0 0 0 0 0 0 1 20 285 1214 1428 1382 1348 1701 1628 490 333
0 0 0 0 0 0 0 0 0 0 0 0 0 0 0 0 0 0 0 0 0 0 0 0 0 163 344 1256 1320 1508 1623 764 343
0 0 0 0 0 0 0 0 0 0 0 0 0 0 0 0 0 0 0 0 0 0 0 0 0 0 34 312 1299 1426 1523 1094 237
0 0 0 0 0 0 0 0 0 0 0 0 0 0 0 0 0 0 0 0 0 0 0 0 0 0 2 23 292 1051 1217 1338 8
0 0 0 0 0 0 0 0 0 0 0 0 0 0 0 0 0 0 0 0 0 0 0 0 0 0 0 0 0 224 1237 263 7
0 0 0 0 0 0 0 0 0 0 0 0 0 0 0 0 0 0 0 0 0 0 0 0 0 0 0 0 0 12 39 79 25
0 0 0 0 0 0 0 0 0 0 0 0 0 0 0 0 0 0 0 0 0 0 0 0 0 0 0 0 0 0 0 0 0
0 0 0 0 0 0 0 0 0 0 0 0 0 0 0 0 0 0 0 0 0 0 0 0 0 0 0 0 0 0 0 0 0
0 0 0 0 0 0 0 0 0 0 0 0 0 0 0 0 0 0 0 0 0 0 0 0 0 0 0 0 0 0 0 0 0

GFSFLT1_con_sbcape_084.txt.gz
CAPE
2 6 258 23 18 46 85 59 226 302 599 431 347 275 535 529 153 35 0 62 324 300 565 578 775 929 885 845 842 674 586 667 748
6 163 147 242 34 122 155 80 226 217 577 631 431 535 443 529 527 301 299 210 65 115 258 378 564 1050 1044 945 650 585 970 595 640
1 2 3 4 2 0 102 99 140 176 235 730 684 597 505 710 580 609 375 172 8 163 107 743 620 789 946 933 932 739 923 808 404
0 4 5 6 4 2 24 30 20 46 71 159 127 104 252 952 1056 830 730 726 632 618 339 500 256 105 126 285 591 984 1082 616 671
0 1 1 4 3 3 2 0 2 15 69 1 0 1 71 284 433 781 984 922 940 582 382 164 111 12 0 0 78 603 885 702 948
0 0 0 0 1 2 4 2 2 1 3 7 0 0 0 43 59 364 522 816 990 865 504 414 182 29 0 0 11 314 904 859 828
0 0 0 0 0 0 1 2 2 3 2 2 2 0 0 0 3 0 0 116 372 625 564 412 185 48 5 0 16 322 697 959 844
0 0 0 0 0 0 0 0 2 2 0 0 1 1 1 1 9 3 64 24 0 0 241 801 369 252 251 187 570 773 745 1111 856
0 0 0 0 0 0 0 0 0 3 0 0 0 0 0 1 0 0 0 31 14 6 23 482 977 1052 1111 1320 1602 1396 1341 1199 1154
0 0 0 0 0 0 0 0 0 0 0 0 0 0 0 0 0 0 0 1 23 0 5 96 457 981 1013 1156 1173 1513 1474 739 641
0 0 0 0 0 0 0 0 0 0 0 0 0 0 0 0 0 0 0 0 0 0 4 30 78 260 625 835 1123 1209 1240 391 28
0 0 0 0 0 0 0 0 0 0 0 0 0 0 0 0 0 0 0 0 0 0 0 0 0 0 75 208 483 859 614 79 165
0 0 0 0 0 0 0 0 0 0 0 0 0 0 0 0 0 0 0 0 0 0 0 0 0 0 0 0 18 155 519 441 137
0 0 0 0 0 0 0 0 0 0 0 0 0 0 0 0 0 0 0 0 0 0 0 0 0 0 0 0 0 1 84 388 71
0 0 0 0 0 0 0 0 0 0 0 0 0 0 0 0 0 0 0 0 0 0 0 0 0 0 0 0 0 0 1 28 1
0 0 0 0 0 0 0 0 0 0 0 0 0 0 0 0 0 0 0 0 0 0 0 0 0 0 0 0 0 0 11 3 0
0 0 0 0 0 0 0 0 0 0 0 0 0 0 0 0 0 0 0 0 0 0 0 0 0 0 0 0 0 0 0 0 0
0 0 0 0 0 0 0 0 0 0 0 0 0 0 0 0 0 0 0 0 0 0 0 0 0 0 0 0 0 0 0 0 0
0 0 0 0 0 0 0 0 0 0 0 0 0 0 0 0 0 0 0 0 0 0 0 0 0 0 0 0 0 0 0 0 0
0 0 0 0 0 0 0 0 0 0 0 0 0 0 0 0 0 0 0 0 0 0 0 0 0 0 0 0 0 0 0 0 0

GFSFLT1_con_sbcape_087.txt.gz
CAPE
40 135 9 18 0 4 21 53 224 310 163 134 13 139 295 256 104 3 0 69 160 267 434 498 566 629 612 394 442 194 233 662 712
1 19 80 33 37 27 32 71 146 394 322 163 101 56 136 293 115 35 0 0 83 176 231 309 361 538 802 577 549 362 588 417 371
3 1 1 8 28 141 39 38 197 190 520 314 200 150 123 219 273 211 104 100 86 50 80 121 356 614 779 742 669 310 405 587 248
2 3 3 3 3 78 140 117 200 130 98 226 114 342 282 357 347 329 241 150 69 0 39 125 474 432 557 680 690 670 726 705 545
1 2 3 3 2 3 15 69 162 147 32 2 0 2 36 185 289 514 541 340 444 384 511 211 142 171 119 110 162 400 752 851 791
0 1 0 3 3 3 2 5 72 53 21 2 0 11 5 0 0 33 205 319 476 446 447 194 58 72 38 12 0 87 455 714 701
0 0 0 1 1 2 1 1 1 12 31 9 2 29 16 0 2 0 0 0 0 78 296 370 157 39 0 0 0 5 189 492 621
0 0 0 0 0 0 0 0 1 1 2 1 1 1 2 1 2 0 0 10 0 0 0 109 509 206 59 0 0 39 83 352 689
0 0 0 0 0 0 0 0 0 1 0 0 0 0 2 1 0 0 0 14 0 0 0 34 70 340 428 366 499 489 534 567 628
0 0 0 0 0 0 0 0 0 0 0 0 0 0 0 1 1 1 0 0 0 0 0 0 0 0 170 488 603 1022 978 688 569
0 0 0 0 0 0 0 0 0 0 0 0 0 0 0 0 0 0 0 0 0 0 0 0 0 0 0 17 197 81 4 1 3
0 0 0 0 0 0 0 0 0 0 0 0 0 0 0 0 0 0 0 0 0 0 0 0 0 0 0 0 0 0 0 1 13
0 0 0 0 0 0 0 0 0 0 0 0 0 0 0 0 0 0 0 0 0 0 0 0 0 0 0 0 0 0 0 0 2
0 0 0 0 0 0 0 0 0 0 0 0 0 0 0 0 0 0 0 0 0 0 0 0 0 0 0 0 0 0 1 1 1
0 0 0 0 0 0 0 0 0 0 0 0 0 0 0 0 0 0 0 0 0 0 0 0 0 0 0 0 0 0 0 0 0
0 0 0 0 0 0 0 0 0 0 0 0 0 0 0 0 0 0 0 0 0 0 0 0 0 0 0 0 0 0 0 0 0
0 0 0 0 0 0 0 0 0 0 0 0 0 0 0 0 0 0 0 0 0 0 0 0 0 0 0 0 0 0 0 0 0
0 0 0 0 0 0 0 0 0 0 0 0 0 0 0 0 0 0 0 0 0 0 0 0 0 0 0 0 0 0 0 0 0
0 0 0 0 0 0 0 0 0 0 0 0 0 0 0 0 0 0 0 0 0 0 0 0 0 0 0 0 0 0 0 0 0
0 0 0 0 0 0 0 0 0 0 0 0 0 0 0 0 0 0 0 0 0 0 0 0 0 0 0 0 0 0 0 0 0

GFSFLT1_con_sbcape_090.txt.gz
CAPE
5 5 0 0 0 30 49 59 184 144 108 44 3 115 121 58 0 43 22 41 140 300 430 525 650 743 696 557 372 211 337 676 804
9 54 21 2 0 22 3 18 71 131 120 76 25 122 159 132 40 0 0 0 60 174 257 394 511 587 699 669 547 468 424 594 657
3 3 2 17 27 15 1 14 48 184 119 72 36 7 30 146 103 0 0 15 15 80 115 295 216 458 570 550 577 532 522 635 383
2 3 3 2 3 49 14 45 166 233 338 379 83 6 56 136 175 178 157 67 76 55 26 27 80 307 582 687 416 652 448 583 622
2 2 3 2 3 2 98 78 215 128 105 59 24 5 45 174 258 304 351 122 230 292 242 107 99 208 401 519 569 617 799 828 951
2 1 1 1 2 3 2 33 132 59 28 28 19 1 4 1 0 0 35 83 195 252 401 330 121 125 98 54 40 119 412 690 567
0 0 1 1 1 2 2 1 3 38 24 11 8 1 14 19 2 0 0 0 0 0 138 386 247 171 118 74 15 0 24 411 632
0 0 0 0 0 1 1 1 1 1 1 11 17 37 37 6 0 0 0 0 0 0 0 11 239 420 215 114 39 36 48 144 530
0 0 0 0 0 0 1 1 2 1 1 1 0 1 3 3 1 0 0 0 0 0 0 0 14 50 272 444 531 342 45 41 560
0 0 0 0 0 0 0 0 0 1 0 0 0 1 1 1 1 1 0 0 0 0 0 0 0 0 0 0 113 0 0 0 48
0 0 0 0 0 0 0 0 0 0 0 0 0 0 0 0 0 0 0 0 0 0 0 0 0 0 0 0 0 0 0 1 2
0 0 0 0 0 0 0 0 0 0 0 0 0 0 0 0 0 0 0 0 0 0 0 0 0 0 0 0 4 0 0 0 1
0 0 0 0 0 0 0 0 0 0 0 0 0 0 0 0 0 0 0 0 0 0 0 0 0 0 0 0 0 0 0 0 3
0 0 0 0 0 0 0 0 0 0 0 0 0 0 0 0 0 0 0 0 0 0 0 0 0 0 0 0 0 0 0 0 0
0 0 0 0 0 0 0 0 0 0 0 0 0 0 0 0 0 0 0 0 0 0 0 0 0 0 0 0 0 0 0 0 0
0 0 0 0 0 0 0 0 0 0 0 0 0 0 0 0 0 0 0 0 0 0 0 0 0 0 0 0 0 0 0 0 0
0 0 0 0 0 0 0 0 0 0 0 0 0 0 0 0 0 0 0 0 0 0 0 0 0 0 0 0 0 0 0 0 0
0 0 0 0 0 0 0 0 0 0 0 0 0 0 0 0 0 0 0 0 0 0 0 0 0 0 0 0 0 0 0 0 0
0 0 0 0 0 0 0 0 0 0 0 0 0 0 0 0 0 0 0 0 0 0 0 0 0 0 0 0 0 0 0 0 0
0 0 0 0 0 0 0 0 0 0 0 0 0 0 0 0 0 0 0 0 0 0 0 0 0 0 0 0 0 0 0 0 0

GFSFLT1_con_sbcape_093.txt.gz
CAPE
529 257 69 218 436 306 74 123 337 301 528 853 700 534 786 1056 1113 922 1095 1193 1239 1174 1747 2423 1864 1852 1871 1734 1720 1639 1728 1511 1839
463 316 53 165 477 469 326 50 306 577 631 774 591 542 659 885 989 1012 1087 1206 1229 1292 1472 1255 1727 1786 1709 1957 1821 1667 1504 1277 1896
203 278 111 131 291 423 419 130 43 279 219 612 832 549 677 1061 1224 1113 1032 857 779 1009 1197 1377 1508 1613 1711 1781 1897 1800 1738 1624 1643
17 26 49 50 189 215 240 116 30 268 434 691 510 165 374 643 1067 1040 1072 1113 1159 1135 1077 920 1200 1377 1354 1703 1738 1748 1780 1700 1795
25 4 3 6 35 193 312 225 202 271 630 751 712 524 234 232 758 805 1146 1338 1153 1267 1120 1041 1035 1026 1272 1293 1258 1709 1877 1755 1273
3 4 4 4 6 62 384 383 349 182 167 271 98 17 4 11 131 1138 1447 1369 1377 1292 1391 1492 1415 1245 1315 1280 1249 1401 1614 1730 1633
3 2 4 4 4 5 29 332 453 500 311 199 99 43 17 24 128 243 366 428 526 812 1276 1562 1549 1525 1396 1125 1066 884 771 954 1319
0 0 2 3 3 3 3 3 11 48 88 78 37 40 35 53 64 189 242 283 229 224 375 652 1120 1509 1411 1288 988 717 721 665 682
0 0 0 0 1 4 3 3 3 1 2 2 101 117 93 47 52 1 1 103 133 123 134 181 257 624 795 828 323 0 1 77 950
0 0 0 0 0 0 1 3 2 2 2 2 2 4 4 4 3 4 2 0 0 0 0 0 0 2 83 132 36 0 1 0 1031
0 0 0 0 1 2 0 0 0 0 0 0 0 0 0 0 0 0 0 0 0 0 0 0 0 0 0 0 0 0 0 1 187
0 0 0 0 0 0 0 0 0 0 0 0 0 0 0 0 0 0 0 0 0 0 0 0 0 0 8 0 0 0 0 0 92
0 0 0 0 0 0 0 0 0 0 0 0 0 0 0 0 0 0 0 0 0 0 0 0 0 0 0 0 0 0 0 0 0
0 0 0 0 0 0 0 0 0 0 0 0 0 0 0 0 0 0 0 0 0 0 0 0 0 0 0 0 0 0 0 0 0
0 0 0 0 0 0 0 0 0 0 0 0 0 0 0 0 0 0 0 0 0 0 0 0 0 0 0 0 0 0 0 0 0
0 0 0 0 0 0 0 0 0 0 0 0 0 0 0 0 0 0 0 0 0 0 0 0 0 0 0 0 0 0 0 0 0
0 0 0 0 0 0 0 0 0 0 0 0 0 0 0 0 0 0 0 0 0 0 0 0 0 0 0 0 0 0 0 0 0
0 0 0 0 0 0 0 0 0 0 0 0 0 0 0 0 0 0 0 0 0 0 0 0 0 0 0 0 0 0 0 0 0
0 0 0 0 0 0 0 0 0 0 0 0 0 0 0 0 0 0 0 0 0 0 0 0 0 0 0 0 0 0 0 0 0
0 0 0 0 0 0 0 0 0 0 0 0 0 0 0 0 0 0 0 0 0 0 0 0 0 0 0 0 0 0 0 0 0

GFSFLT1_con_sbcape_096.txt.gz
CAPE
877 824 432 376 637 421 676 1044 963 666 1276 1643 1580 1426 1582 1607 1609 682 1141 1062 913 2129 1632 1141 1621 1330 1391 1729 1784 1975 2155 1748 1465
771 1059 741 488 710 900 1027 793 778 507 501 945 1487 1338 1439 1492 1664 1492 888 1009 1060 2793 1919 1541 1363 1081 1101 1160 1442 1837 2007 1346 1951
822 1024 1069 731 739 893 632 336 296 279 797 953 1117 1063 1207 1213 750 736 686 1092 1261 1378 1420 1930 1406 1329 1184 1192 1307 1785 2262 1405 1657
762 1048 1007 785 899 1079 1012 438 175 176 266 377 1085 1069 1198 1078 926 705 734 729 901 944 1372 1775 1961 1542 1137 1312 1134 1231 1755 1648 1556
302 364 317 435 802 869 820 847 321 129 173 200 411 1188 1079 738 906 826 729 781 845 1190 1085 1793 1617 1561 1630 1614 1328 1545 1565 1497 1297
238 168 130 189 372 570 810 501 234 211 358 665 796 453 568 507 463 620 818 987 938 1176 1422 1289 985 1125 1235 1396 1567 1399 1666 1990 1750
66 105 53 21 39 339 473 655 809 712 551 477 405 158 80 123 140 246 538 766 1111 1213 1455 1602 1109 1176 1223 1313 1815 1724 1700 1774 1853
104 176 207 33 4 5 6 261 1034 1005 758 653 735 312 121 167 204 253 370 769 875 991 1129 1246 1485 1724 1889 1908 1821 1442 1840 1592 1501
164 162 126 24 4 5 5 3 25 433 711 521 750 325 246 141 288 173 153 264 439 521 578 650 1050 1254 1542 1527 1188 0 1 135 1659
185 165 104 7 5 4 5 4 3 3 3 2 2 6 8 5 22 60 6 0 0 102 220 268 256 428 796 55 0 0 0 0 1174
143 61 0 3 3 5 4 2 0 1 1 0 0 0 0 1 2 4 5 0 0 0 16 147 154 190 178 0 0 0 0 0 435
148 102 45 0 2 1 1 1 3 0 0 0 0 0 0 0 0 0 0 0 0 0 7 36 69 99 19 0 0 0 0 0 345
19 6 6 11 1 0 0 0 0 0 0 0 0 0 0 0 0 0 0 0 0 0 0 3 7 7 0 0 0 0 0 0 0
0 1 3 2 1 0 0 0 0 0 0 0 0 0 0 0 0 0 0 0 0 0 0 1 0 3 2 0 0 0 0 0 0
0 0 1 0 0 0 0 0 0 0 0 0 0 0 0 0 0 0 0 0 0 0 0 0 0 0 0 0 0 0 0 0 0
0 0 0 0 0 0 0 0 0 0 0 0 0 0 0 0 0 0 0 0 0 0 0 0 0 0 0 0 0 0 0 0 0
1 1 0 0 0 0 0 0 0 0 0 0 0 0 0 0 0 0 0 0 0 0 0 0 0 0 0 0 0 0 0 0 0
0 0 0 0 0 0 0 0 0 0 0 0 0 0 0 0 0 0 0 0 0 0 0 0 0 0 0 0 0 0 0 0 0
20 0 0 0 0 0 0 0 0 0 0 0 0 0 0 0 0 0 0 0 0 0 0 0 0 0 0 0 0 0 0 0 0
13 0 0 0 0 0 0 0 0 0 0 0 0 0 0 0 0 0 0 0 0 0 0 0 0 0 0 0 0 0 0 0 0

GFSFLT1_con_sbcape_099.txt.gz
CAPE
771 540 164 251 572 449 862 1122 916 1272 1843 2158 1762 1552 1520 1375 1229 950 801 1222 2211 936 884 852 2699 1745 1679 1631 2025 1960 1821 1586 1555
724 747 370 422 516 879 1309 1109 1349 1439 1949 2232 1793 1473 1566 1645 1527 1424 1481 1387 1473 1377 1790 1855 1402 1208 1248 1443 1571 1776 1840 1453 1507
979 872 941 578 1064 1036 720 454 1545 904 812 1402 1684 1575 1438 1579 1477 1275 1012 1073 1234 1390 976 1395 1608 928 1096 1165 1223 1455 1833 2307 1952
994 1071 1217 1545 1300 1235 1446 1203 1054 824 1346 1387 1534 1582 1540 1907 1391 1623 1426 965 836 1057 1145 1466 1219 1452 1348 1344 1455 1529 2215 2473 1836
1511 1681 1604 1380 1208 1501 1153 1047 219 418 207 306 203 960 1253 1418 961 1163 1397 914 907 916 1273 1352 1373 1507 1602 1719 1499 2032 2196 1743 1478
970 891 1112 1221 1243 1427 1606 988 608 548 325 211 188 222 1176 898 1072 1158 1414 1544 1059 1013 1029 1427 1246 1506 1633 1504 2007 1958 1930 2099 1966
398 366 361 500 716 1037 1177 1228 1117 785 530 374 560 694 233 296 265 341 589 682 790 1098 1691 1345 1365 1383 1610 1491 1515 1790 1808 1828 1854
347 398 320 133 173 267 547 1078 1149 936 663 650 823 655 672 573 209 244 335 365 843 988 1758 1285 1322 1352 1456 1548 1461 519 493 1863 1760
748 496 429 230 17 21 9 132 1217 1549 1348 825 976 1013 895 670 664 841 776 713 672 761 903 1076 1278 1375 1615 1477 0 0 0 0 2083
643 513 289 143 62 19 7 5 6 127 512 1105 1022 745 530 573 436 364 424 392 308 194 294 835 771 936 317 10 0 0 0 0 226
697 357 236 159 19 5 5 3 4 4 2 14 77 30 11 8 30 50 44 104 13 1 57 350 513 531 116 0 0 0 0 0 36
585 325 247 114 6 4 4 2 0 0 3 4 0 2 1 0 0 2 2 4 94 79 333 293 316 313 59 0 0 0 0 0 426
451 258 55 5 6 1 0 0 0 0 0 0 0 0 0 0 0 0 0 3 2 5 3 82 111 0 0 0 0 0 0 0 0
220 123 29 1 1 0 0 0 0 0 0 0 0 0 0 0 0 0 0 0 0 0 1 14 20 10 5 0 0 0 0 0 0
178 68 7 10 8 0 0 0 0 0 0 0 0 0 0 0 0 0 0 0 0 0 0 0 5 7 2 0 0 0 0 0 0
91 40 5 2 0 0 0 0 0 0 0 0 0 0 0 0 0 0 0 0 0 0 0 0 0 0 0 0 0 0 0 0 0
114 42 4 2 1 0 0 0 0 0 0 0 0 0 0 0 0 0 0 0 0 0 0 0 0 0 0 0 0 0 0 0 0
206 98 25 3 0 0 0 0 0 0 0 0 0 0 0 0 0 0 0 0 0 0 0 0 0 0 0 0 0 0 0 0 0
279 192 48 8 3 1 0 0 0 0 0 0 0 0 0 0 0 0 0 0 0 0 0 0 0 0 0 0 0 0 0 0 0
177 259 152 101 54 5 2 0 0 0 0 0 0 0 0 0 0 0 0 0 0 0 0 0 0 0 0 0 0 0 0 0 0

GFSFLT1_con_sbcape_102.txt.gz
CAPE
139 140 221 219 202 19 702 1189 1497 1431 2165 2553 2381 2018 2433 2631 3015 1877 1867 2532 1527 322 355 127 1117 2037 2149 2592 2586 2752 2764 2726 2589
42 30 51 195 111 272 73 12 827 1180 2069 2018 2402 2043 2557 2432 2059 2214 1924 1906 2727 2048 294 58 4 0 1638 2277 1832 2097 2149 2656 2538
0 12 82 91 96 13 0 0 195 1212 2327 2014 2067 1515 2071 2095 2137 2528 2145 2366 1699 1395 18 0 0 0 894 2149 1843 2402 2727 2286 2077
314 742 436 166 105 536 0 0 1032 1435 1667 1754 2024 1489 1058 1951 1603 1861 2013 2154 2105 1760 158 0 0 739 1877 1761 2613 2534 2724 2699 2184
1584 936 545 86 94 25 834 867 1521 1051 743 847 1117 1006 1341 1430 822 1094 1555 740 279 1471 1720 2078 2267 2652 1972 2208 1810 1920 2331 2318 2038
1523 2145 1424 908 1023 1447 1831 1572 1215 1109 656 577 236 750 672 687 1440 1186 1511 1499 378 321 1418 2221 2184 2203 1828 1447 1977 1533 1938 2298 2109
1128 1294 1356 1611 1550 1661 1435 1669 1283 837 700 408 340 224 318 522 565 624 368 584 820 1154 1222 1093 1142 1862 1652 1579 2240 1672 1627 2035 1925
741 624 511 927 545 668 1347 1645 1496 1406 1081 797 349 389 447 419 419 67 121 286 244 635 416 722 1035 1312 1581 229 0 0 4 63 1081
519 497 463 290 212 355 171 599 1376 1201 1019 736 931 925 677 717 790 664 560 315 275 172 170 445 599 472 893 19 1 0 0 0 905
719 469 343 261 121 47 5 5 165 266 1389 1365 1355 1392 1235 985 707 1026 626 512 429 371 195 148 203 312 23 0 0 0 0 0 21
587 410 239 147 21 4 3 3 4 1 1 157 199 163 558 492 577 359 239 212 119 71 154 99 158 128 0 0 0 0 0 0 0
527 378 306 102 7 3 3 1 1 1 1 2 1 1 0 3 24 11 4 35 198 131 127 21 204 233 6 0 0 0 0 0 3
451 56 0 0 2 2 0 0 0 0 2 0 0 0 0 0 0 0 0 0 0 11 135 368 5 0 0 0 0 0 0 0 0
310 215 3 1 0 0 0 0 0 0 0 0 0 0 0 0 0 0 0 0 0 0 0 170 39 0 0 0 0 0 0 0 0
177 29 0 2 0 0 0 0 0 0 0 0 0 0 0 0 0 0 0 0 0 0 0 0 1 14 3 0 0 0 0 0 0
81 23 8 6 0 0 0 0 0 0 0 0 0 0 0 0 0 0 0 0 0 0 0 0 0 0 0 0 0 0 0 0 0
211 68 6 1 0 0 0 0 0 0 0 0 0 0 0 0 0 0 0 0 0 0 0 0 0 0 0 0 0 0 0 0 0
304 193 95 24 17 0 0 0 0 0 0 0 0 0 0 0 0 0 0 0 0 0 0 0 0 0 0 0 0 0 0 0 0
276 259 179 195 151 46 4 6 0 0 0 0 0 0 0 0 0 0 0 0 0 0 0 0 0 0 0 0 0 0 0 0 0
290 393 369 372 306 231 56 11 0 0 0 0 0 0 0 0 0 0 0 0 0 0 0 0 0 0 0 0 0 0 0 0 0

GFSFLT1_con_sbcape_105.txt.gz
CAPE
53 48 73 76 11 44 153 237 534 678 1083 1269 957 1306 1025 831 921 816 810 880 200 192 103 318 421 608 752 1005 1086 1075 1158 974 1259
31 28 73 91 126 83 343 155 842 1259 1255 1221 1349 928 1160 681 1048 830 864 864 450 539 454 297 155 57 0 51 968 1260 1248 1018 827
41 27 62 86 177 149 194 15 159 687 1364 1427 1362 1092 1320 1106 958 1113 982 716 117 101 14 20 82 0 0 47 953 927 994 1191 929
1 0 9 56 129 103 62 35 53 224 232 1159 1310 1251 971 969 905 929 872 771 598 44 0 0 0 0 124 871 1043 1180 1005 981 878
26 7 19 106 99 44 18 1 33 35 78 518 973 1013 425 553 665 65 639 173 147 235 204 79 75 550 1192 948 1005 979 1239 1301 1251
72 0 27 73 112 49 50 14 25 310 372 686 667 436 476 211 42 118 564 345 26 156 647 761 1032 863 1032 955 813 797 935 1049 908
592 110 103 73 74 100 30 115 579 568 410 199 155 149 142 100 218 174 274 317 310 329 212 247 560 746 985 653 112 38 57 198 554
339 486 534 290 160 350 123 297 422 291 361 222 185 113 159 151 115 23 33 27 20 22 31 96 359 634 12 0 0 0 2 1 44
309 249 175 177 136 85 1 172 461 626 628 376 316 356 296 380 236 100 111 149 56 27 23 3 161 3 0 0 0 0 0 0 0
424 277 49 58 18 1 2 1 2 46 522 602 563 575 574 468 358 271 363 350 211 22 1 31 36 0 0 0 0 0 0 0 0
365 200 149 0 1 2 3 1 0 0 82 314 331 588 471 408 243 109 85 44 19 0 2 11 0 0 0 0 0 0 0 0 0
235 212 17 0 0 2 1 3 1 1 0 0 0 0 1 10 15 0 2 0 13 19 16 7 0 0 0 0 0 0 0 0 0
7 0 0 0 0 0 0 0 0 0 0 0 0 0 0 0 0 0 0 0 0 0 0 1 0 0 0 0 0 0 0 0 0
0 0 0 0 0 0 0 0 0 0 0 0 0 0 0 0 0 0 0 0 0 0 0 0 0 0 0 0 0 0 0 0 0
6 0 0 0 0 0 0 0 0 0 0 0 0 0 0 0 0 0 0 0 0 0 0 0 0 0 0 0 0 0 0 0 0
26 0 0 0 0 0 0 0 0 0 0 0 0 0 0 0 0 0 0 0 0 0 0 0 0 0 0 0 0 0 0 0 0
38 2 0 0 0 0 0 0 0 0 0 0 0 0 0 0 0 0 0 0 0 0 0 0 0 0 0 0 0 0 0 0 0
28 1 0 0 0 0 0 0 0 0 0 0 0 0 0 0 0 0 0 0 0 0 0 0 0 0 0 0 0 0 0 0 0
18 18 5 3 0 0 0 0 0 0 0 0 0 0 0 0 0 0 0 0 0 0 0 0 0 0 0 0 0 0 0 0 0
69 35 22 30 6 0 0 0 0 0 0 0 0 0 0 0 0 0 0 0 0 0 0 0 0 0 0 0 0 0 0 0 0

GFSFLT1_con_sbcape_108.txt.gz
CAPE
68 124 93 77 1 37 77 264 193 254 201 207 513 245 227 196 350 270 208 45 108 377 186 43 191 385 597 685 683 470 859 615 749
50 101 127 111 18 73 86 170 426 445 338 354 382 365 286 340 313 366 446 512 108 74 142 223 137 293 75 45 527 683 785 561 554
60 51 92 137 99 217 186 76 20 500 523 593 532 560 462 232 550 340 364 302 248 331 305 123 177 53 0 0 92 551 628 699 567
35 27 33 166 182 299 266 252 269 63 155 787 836 486 674 433 633 523 320 147 104 97 10 0 17 0 0 70 513 613 473 502 559
7 20 56 178 122 41 90 73 47 118 34 264 804 498 627 755 522 411 423 277 196 0 0 0 0 0 48 566 735 600 576 645 1051
38 27 93 145 96 6 27 11 38 50 23 6 502 402 475 365 178 53 302 98 40 85 212 214 38 280 526 623 509 461 403 513 498
191 48 100 128 107 53 24 73 38 36 161 285 274 216 363 203 54 20 243 130 23 25 163 98 175 283 475 41 0 0 0 9 126
459 33 81 129 96 71 60 82 421 170 331 223 127 124 97 161 120 94 80 36 37 20 27 62 69 1 0 0 0 0 0 0 0
567 145 154 156 99 119 89 154 102 258 179 146 95 89 46 87 65 30 20 61 66 6 33 13 47 0 0 0 0 0 0 0 0
509 455 326 138 82 117 81 57 176 15 166 142 124 127 229 284 172 154 168 196 146 51 21 38 0 0 0 0 0 0 0 0 0
192 96 24 2 1 2 2 1 1 19 23 139 177 222 279 286 229 195 104 34 4 0 11 3 0 0 0 0 0 0 0 0 1
72 0 0 3 2 3 3 6 4 1 1 1 49 166 266 213 122 67 4 1 0 0 0 0 0 0 0 0 0 0 0 0 0
0 0 0 0 2 2 3 1 1 1 0 0 0 0 0 0 0 0 0 0 0 0 0 0 0 0 0 0 0 0 0 0 0
0 0 0 0 0 0 0 2 0 0 1 0 0 0 0 0 0 0 0 0 0 0 0 0 0 0 0 0 0 0 0 0 0
0 0 0 0 0 0 0 0 0 0 0 0 0 0 0 0 0 0 0 0 0 0 0 0 0 0 0 0 0 0 0 0 0
0 0 0 0 0 0 0 0 0 0 0 0 0 0 0 0 0 0 0 0 0 0 0 0 0 0 0 0 0 0 0 0 0
0 0 0 0 0 0 0 0 0 0 0 0 0 0 0 0 0 0 0 0 0 0 0 0 0 0 0 0 0 0 0 0 0
9 0 0 0 0 0 0 0 0 0 0 0 0 0 0 0 0 0 0 0 0 0 0 0 0 0 0 0 0 0 0 0 0
0 0 0 0 0 0 0 0 0 0 0 0 0 0 0 0 0 0 0 0 0 0 0 0 0 0 0 0 0 0 0 0 0
5 0 0 0 0 0 0 0 0 0 0 0 0 0 0 0 0 0 0 0 0 0 0 0 0 0 0 0 0 0 0 0 0

GFSFLT1_con_sbcape_111.txt.gz
CAPE
59 89 2 34 54 16 69 118 168 204 72 53 164 91 173 176 181 152 124 86 24 140 206 114 62 218 518 301 235 0 477 474 495
13 23 52 56 61 60 61 42 145 185 74 0 162 122 87 65 207 175 190 136 48 59 131 69 102 255 280 378 494 491 462 377 271
2 2 94 55 28 108 102 138 132 154 131 25 155 236 62 73 128 175 216 259 215 66 98 179 0 120 35 9 35 265 566 461 294
2 57 62 86 17 165 162 221 238 309 244 216 295 330 217 214 230 189 196 228 198 137 78 14 11 39 0 0 29 234 427 335 349
0 28 75 104 160 233 237 251 249 253 177 486 499 310 397 304 301 298 248 177 101 43 0 0 0 0 0 0 356 385 428 348 667
13 11 67 117 143 162 200 197 98 108 81 67 156 222 207 208 248 256 141 112 134 81 12 0 0 0 65 354 352 309 263 386 503
5 64 64 61 105 42 41 26 11 18 22 29 123 246 402 326 218 210 125 144 24 22 67 38 131 144 252 162 0 0 0 27 151
33 39 83 103 110 66 31 18 0 6 76 131 167 284 112 177 252 267 167 134 37 29 16 19 42 59 1 0 0 0 0 0 0
41 46 41 65 106 96 49 59 140 78 145 178 142 127 184 166 162 135 92 27 20 20 0 1 57 0 0 0 0 0 0 0 0
265 96 169 129 127 117 85 73 128 213 132 75 56 59 44 60 25 60 30 39 58 30 14 23 1 0 0 0 0 0 0 0 0
82 8 6 4 1 1 1 1 17 9 71 131 70 64 47 105 84 142 223 179 88 14 17 0 0 0 0 0 0 0 0 0 0
2 3 3 4 3 1 1 4 2 7 1 45 100 115 166 128 157 93 33 1 0 0 1 0 0 0 0 0 0 0 0 0 0
1 1 0 2 3 2 2 5 1 1 2 9 43 37 77 57 52 4 0 0 0 0 0 0 0 0 0 0 0 0 0 0 0
0 0 0 0 0 2 5 8 0 1 1 2 8 10 5 3 1 0 0 0 0 1 0 0 0 0 0 0 0 0 0 0 0
0 0 0 0 0 0 0 0 0 0 2 8 8 12 10 4 1 0 0 0 0 0 0 0 0 0 0 0 0 0 0 0 0
0 0 0 0 0 0 0 0 0 0 0 0 0 0 0 0 0 0 0 0 0 0 0 0 0 0 0 0 0 0 0 0 0
0 0 0 0 0 0 0 0 0 0 0 0 0 0 0 0 0 0 0 0 0 0 0 0 0 0 0 0 0 0 0 0 0
0 0 0 0 0 0 0 0 0 0 0 0 0 0 0 0 0 0 0 0 0 0 0 0 0 0 0 0 0 0 0 0 0
0 0 0 0 0 0 0 0 0 0 0 0 0 0 0 0 0 0 0 0 0 0 0 0 0 0 0 0 0 0 0 0 0
0 0 0 0 0 0 0 0 0 0 0 0 0 0 0 0 0 0 0 0 0 0 0 0 0 0 0 0 0 0 0 0 0

GFSFLT1_con_sbcape_114.txt.gz
CAPE
16 0 1 11 14 22 52 93 135 120 0 82 118 58 45 42 23 31 50 94 128 166 190 194 152 204 634 442 173 0 26 534 507
19 31 0 0 9 30 63 107 129 137 83 26 88 89 52 70 90 63 71 82 36 37 146 136 113 211 543 435 522 459 509 528 363
18 26 0 7 23 23 32 94 143 137 116 38 38 97 44 52 58 109 67 141 138 115 84 90 74 140 153 186 127 365 571 687 512
18 5 33 10 6 21 16 63 94 150 130 73 74 145 79 88 55 69 86 155 108 71 116 147 117 49 91 1 10 186 412 468 544
25 29 9 27 17 65 34 132 118 124 153 148 164 210 181 146 129 196 172 131 103 3 3 1 2 53 38 0 26 476 533 453 675
26 18 21 26 64 72 117 166 229 233 210 219 276 241 266 205 203 212 219 146 76 0 0 0 0 0 0 39 495 565 471 435 355
32 11 45 93 136 144 114 104 197 190 149 197 223 240 200 219 195 211 99 78 75 55 0 0 35 55 181 271 194 120 96 71 195
46 38 82 80 119 121 74 45 56 56 48 68 155 204 270 185 146 186 165 113 70 93 79 11 4 34 42 1 0 0 0 0 0
95 88 103 90 67 82 57 116 88 39 85 74 144 187 79 91 148 109 155 137 90 79 69 25 37 0 0 0 0 0 0 0 0
101 200 135 109 82 96 65 69 63 33 93 122 95 71 77 69 104 101 123 85 48 34 17 12 9 0 0 0 0 0 0 0 0
198 134 67 9 9 7 2 2 119 90 72 65 19 15 41 42 44 33 26 41 67 41 20 2 0 0 0 0 0 0 0 0 0
7 4 3 4 3 2 1 1 2 17 66 74 55 11 18 40 28 53 69 83 41 3 1 0 0 0 0 0 0 0 0 0 0
2 1 1 2 3 5 1 4 2 14 29 66 54 21 22 41 48 75 10 1 2 5 0 0 0 0 0 0 0 0 0 0 0
1 0 0 0 0 1 2 2 2 2 1 1 2 2 1 1 1 1 1 2 3 4 0 0 0 0 0 0 0 0 0 0 0
0 0 0 0 0 0 1 3 0 0 1 1 2 4 1 0 0 4 3 0 0 2 3 0 0 0 0 0 0 0 0 0 0
0 0 0 0 0 0 0 0 0 1 2 0 0 0 2 4 2 4 1 0 0 0 0 0 0 0 0 0 0 0 0 0 0
0 0 0 0 0 0 0 0 0 0 0 0 0 0 0 0 1 0 0 0 0 0 0 0 0 0 0 0 0 0 0 0 0
0 0 0 0 0 0 0 0 0 0 0 0 0 0 0 0 0 0 0 0 0 0 0 0 0 0 0 0 0 0 0 0 0
0 0 0 0 0 0 0 0 0 0 0 0 0 0 0 0 0 0 0 0 0 0 0 0 0 0 0 0 0 0 0 0 0
0 0 0 0 0 0 0 0 0 0 0 0 0 0 0 0 0 0 0 0 0 0 0 0 0 0 0 0 0 0 0 0 0

GFSFLT1_con_sbcape_117.txt.gz
CAPE
116 16 0 17 172 207 236 205 283 248 267 525 833 874 1015 1096 1167 910 975 1327 1499 1222 1161 1208 1417 1567 1955 2111 1592 1310 889 1096 1692
82 3 0 18 134 98 310 262 330 302 314 464 804 812 1025 1075 1112 1059 991 1195 1125 1074 1233 1109 1241 1128 1383 1793 1720 1369 1456 1064 1693
81 53 9 35 117 124 216 302 413 431 441 507 605 813 960 959 1000 1260 1215 1214 1318 1281 1014 1056 1273 1041 1112 1529 1724 1786 1753 1979 1891
66 75 17 35 47 56 150 315 386 572 673 701 622 773 905 968 928 978 1240 1283 1446 1496 1173 1067 938 1007 1025 1185 1255 1259 1515 1761 1751
86 82 16 39 46 40 124 252 370 507 686 717 741 752 1038 1037 1054 1110 1162 1354 1327 1137 1183 967 990 877 765 752 974 880 1258 1420 1255
201 146 99 110 66 49 123 277 362 518 655 775 798 816 1000 1066 1010 1140 1270 1337 1237 1036 1049 891 647 416 336 861 727 705 1285 1803 1755
211 172 202 327 180 40 79 493 548 512 663 427 876 886 989 1093 1202 1285 1341 1313 788 591 664 751 875 865 869 701 860 1525 1677 1310 1320
270 242 253 320 457 366 158 157 538 845 430 411 853 965 1074 1254 1566 1197 1236 761 731 410 420 453 495 546 701 992 925 677 525 698 788
344 363 330 350 351 247 143 133 244 276 601 374 511 1057 1217 1294 974 595 781 595 615 483 306 191 459 275 0 4 20 0 0 0 106
473 378 386 394 299 122 72 22 74 104 193 274 365 613 659 517 244 430 208 189 305 360 141 69 187 62 0 0 0 0 0 0 0
316 185 179 240 273 103 106 165 166 71 90 140 123 64 93 95 56 26 93 112 134 133 99 76 14 0 0 0 0 0 0 0 0
43 21 8 5 5 5 15 78 442 308 297 228 222 97 178 80 68 51 18 5 51 82 126 17 0 0 0 0 0 0 0 0 6
6 5 6 4 4 4 3 2 1 124 191 238 194 63 47 53 37 102 127 92 24 2 2 2 2 0 0 0 0 0 0 0 3
2 4 3 2 2 2 4 5 3 2 5 2 4 1 2 3 1 3 9 3 4 3 2 6 10 0 0 0 0 0 0 0 0
4 3 1 1 2 3 3 3 1 2 3 3 3 3 2 3 1 1 0 1 2 3 3 6 3 0 0 0 0 0 0 0 0
15 2 1 0 0 0 0 0 1 0 1 2 4 6 6 4 7 2 1 1 2 4 8 3 0 0 0 0 0 0 0 0 0
2 1 0 0 0 0 0 0 0 0 0 0 0 0 1 0 0 0 1 0 5 4 7 6 0 0 0 0 0 0 0 0 0
2 0 0 0 0 0 0 0 0 0 0 0 0 0 0 0 0 0 0 1 3 0 0 0 0 0 0 0 0 0 0 0 0
0 0 0 0 0 0 0 0 0 0 0 0 0 0 0 0 0 0 0 0 0 0 0 0 0 0 0 0 0 0 0 0 0
0 0 0 0 0 0 0 0 0 0 0 0 0 0 0 0 0 0 0 0 0 0 0 0 0 0 0 0 0 0 0 0 0

GFSFLT1_con_sbcape_120.txt.gz
CAPE
297 259 301 184 262 408 536 661 668 699 814 1107 1210 1293 1048 1416 1295 1515 949 879 1102 797 937 934 1021 1349 1477 1547 1872 1809 1913 1436 1593
17 51 182 311 239 482 626 732 745 789 827 959 937 977 1250 1489 1935 1672 1091 1252 1649 1279 2433 2043 1700 1685 1524 1323 1456 1460 1616 1269 1388
22 33 149 347 278 528 710 753 787 865 844 835 834 819 1071 1227 1310 1596 1544 1560 1883 1316 1399 1698 1592 1789 1736 1707 1766 1861 2157 1417 1647
89 200 146 304 342 589 702 755 756 987 906 788 838 868 1019 1088 1099 1172 1436 1378 1653 1855 2179 1889 1869 2035 1917 1824 1804 1859 2179 1977 1486
132 239 186 103 409 662 715 753 761 1077 1055 963 998 917 1154 1331 1325 1329 1117 1435 1449 1817 2054 1982 2032 1951 1811 1568 1687 1731 1910 1908 1280
241 274 292 179 269 677 580 372 880 947 1147 1219 1190 1280 1303 1410 1380 1433 1196 1452 1493 1760 1781 1786 1463 1490 1557 1508 1492 1527 1582 1699 1475
483 400 393 214 104 228 361 254 360 1018 1170 1225 1372 1347 1451 1513 1445 1311 1279 1551 1690 1702 1707 1689 1595 1615 1547 1388 1175 1297 1537 1434 1395
597 602 550 453 151 65 143 193 566 899 1186 1344 1383 1343 1396 1549 1637 1616 1690 1582 1716 1619 1444 1238 1169 1171 1150 1402 1433 1074 1430 1486 1373
585 594 483 697 513 250 125 153 354 607 1111 1492 1260 924 869 1407 1850 1919 1847 1428 1690 1449 1036 943 936 906 977 996 551 0 0 0 360
786 719 731 506 677 602 560 159 177 299 867 1137 1099 579 645 1313 1655 1392 1815 1598 1449 1010 755 1037 838 798 702 186 26 0 0 0 0
529 576 736 780 739 762 100 91 253 245 263 643 925 784 421 886 517 799 1114 271 252 215 288 287 389 351 206 91 0 0 0 0 0
91 66 47 27 27 165 284 161 111 98 94 86 93 190 237 289 243 380 169 92 99 142 165 191 15 1 0 0 0 0 0 0 83
9 7 8 13 8 14 31 48 381 313 176 191 290 205 299 363 384 284 89 67 22 56 28 2 3 2 0 0 0 0 0 0 175
7 7 6 6 5 6 6 5 174 483 547 406 269 185 30 3 1 1 71 84 12 2 2 2 3 4 2 0 0 0 0 0 50
19 3 4 5 5 7 7 6 2 3 3 6 14 10 7 6 3 4 2 2 1 4 4 2 3 2 2 1 0 0 0 0 0
92 22 1 0 0 0 1 2 2 2 4 6 4 3 3 5 6 4 5 9 5 2 4 4 4 2 3 1 0 0 0 0 0
112 62 15 0 0 0 0 0 0 1 1 0 0 1 1 0 1 2 2 2 5 4 9 8 13 9 7 4 0 0 0 0 0
177 9 2 6 2 1 0 0 0 0 0 0 0 0 0 0 0 0 0 0 1 1 1 1 8 7 12 3 0 0 0 0 0
0 0 0 0 0 0 0 0 0 0 0 0 0 0 0 0 0 0 0 0 0 0 0 0 0 0 0 0 0 0 0 0 0
0 0 0 0 0 0 0 0 0 0 0 0 0 0 0 0 0 0 0 0 0 0 0 0 0 0 0 0 0 0 0 0 0

GFSFLT1_con_sbcape_123.txt.gz
CAPE
414 356 166 116 247 343 1116 923 771 871 1057 1519 1348 1530 1555 2123 1443 1275 1116 1631 1072 935 982 870 1953 1956 1733 1808 2003 1957 2054 1736 1568
98 213 277 232 219 244 867 871 867 1081 1171 1308 1176 1320 1537 1795 1619 1345 979 2341 1596 1425 1482 1115 1607 1605 1857 1817 1702 1727 2017 1687 1600
341 302 567 416 221 258 452 673 1054 973 1143 1270 1139 973 1121 1246 1278 1488 1425 2530 1908 1334 2473 1947 1741 1946 1724 1876 1782 1861 2575 2112 2552
179 107 137 305 137 334 562 812 926 1182 1196 1274 1164 1008 1739 1715 1427 1389 1490 1533 1872 2009 2138 1916 1921 2130 2184 2051 1893 1898 2584 2240 2615
309 249 231 417 446 368 644 1038 1013 1160 1395 1188 1120 1410 2235 1911 1593 1416 1238 1451 1228 2154 2407 2445 2655 2215 2212 2068 2045 2315 2259 2107 1718
413 413 358 328 463 703 873 1295 1373 1097 1319 1503 1092 1604 1087 1500 1340 1508 1469 1402 1413 1656 2125 1895 1598 1908 2153 2085 1708 1759 1906 2025 1890
527 636 498 287 269 323 1378 1338 1970 1862 1559 1444 1467 1267 1179 1798 1209 1230 1323 1637 2179 1561 1508 1872 1604 1654 1624 1606 1313 1314 1564 1675 1749
818 517 451 297 240 110 456 971 1294 1306 2019 2119 1740 1651 1540 1993 2549 1958 1993 1680 2230 2234 1771 1512 1296 1172 1294 1489 1310 841 1339 1386 1524
849 812 722 677 613 357 182 573 888 920 877 1954 2074 1907 1865 2537 3025 1952 1664 1858 1842 1919 1668 1484 1374 1680 1071 1331 986 0 0 0 534
794 859 745 654 1080 245 277 203 647 1018 1041 1122 1620 1705 1633 1524 1574 1784 1845 1620 2395 2157 2027 1845 1371 1132 745 651 0 0 0 0 5
446 420 717 207 587 866 372 193 245 379 346 427 894 1434 1364 1496 1508 1556 1634 1413 1475 1724 1628 1059 967 348 125 214 0 0 0 1 26
8 12 19 5 90 542 248 172 163 85 94 146 241 723 840 958 480 564 520 747 644 450 673 602 149 3 0 0 0 0 0 0 117
43 3 10 7 4 76 283 332 248 83 26 61 26 73 185 308 527 552 513 552 688 514 330 86 1 1 0 0 0 0 0 0 0
9 4 6 5 4 9 6 28 315 336 234 166 134 142 53 35 25 29 59 59 44 3 2 1 1 3 3 1 0 0 0 0 0
78 5 7 5 6 7 6 4 3 3 9 22 48 20 54 27 14 20 9 1 2 1 1 2 2 1 2 4 2 0 0 0 0
102 1 1 2 1 0 2 5 3 1 3 2 3 5 4 4 3 2 2 9 5 6 3 5 4 4 3 4 7 5 0 0 0
151 8 2 0 0 0 0 0 1 4 3 7 1 2 4 3 0 0 5 1 1 11 11 8 8 6 4 4 3 7 0 0 0
88 84 5 1 0 0 0 0 0 0 0 0 0 0 0 0 0 0 0 0 1 1 1 2 11 12 6 3 3 0 0 0 0
66 55 2 0 0 0 0 0 0 0 0 0 0 0 0 0 0 0 0 0 0 0 0 0 0 0 0 0 0 0 0 0 0
0 0 0 0 0 0 0 0 0 0 0 0 0 0 0 0 0 0 0 0 0 0 0 0 0 0 0 0 0 0 0 0 0

GFSFLT1_con_sbcape_126.txt.gz
CAPE
371 468 279 198 85 39 365 839 740 1133 1849 1954 1651 2002 2405 2721 2608 2401 2049 2520 2229 2237 2577 646 887 2616 3321 3005 3063 3313 3364 3135 2795
498 557 542 145 255 231 353 1083 1132 1150 1795 1973 2080 1613 2019 2326 2485 2250 1955 2216 2841 2416 3172 2142 2165 2572 2973 2967 3105 3054 3022 2784 2690
410 761 789 212 490 116 610 975 770 1314 1755 1783 1790 1576 1551 1470 1423 2240 2209 2267 2939 2788 2736 3002 2824 2660 2536 2737 2858 3084 3036 2613 2301
325 345 667 858 482 155 51 488 1258 1449 1547 1732 1649 1499 1860 1630 1572 1937 2174 1825 2489 2419 2156 2689 2471 2643 2984 2721 2763 2592 2547 2910 2538
377 213 80 456 229 161 130 322 906 1464 1459 1723 1535 1544 2175 1870 2130 2118 1628 2164 2427 2201 2071 2793 3045 3184 3167 2829 2408 2597 2564 2190 1957
78 240 38 392 281 160 166 56 616 1338 1654 1725 1559 1740 1639 1899 2200 2046 2104 1497 2129 2506 1882 2351 2205 2670 2046 1663 1784 1479 2342 2167 2220
283 500 309 833 599 488 151 88 271 1218 1660 1826 1592 1574 1544 1948 1847 1900 1924 2527 1996 2044 2376 1911 2043 2504 2049 1633 1786 1958 1853 1813 2093
772 546 483 592 470 416 179 636 334 660 1568 1919 1719 1484 1608 1658 2073 2050 1954 2071 2409 2393 1908 2238 2778 2356 2432 2130 1510 342 144 2094 1744
1124 601 536 410 152 117 113 20 201 1 658 621 1331 1809 1655 2134 2383 2502 2340 2440 2527 2427 2320 2570 1996 2072 1769 1715 0 0 0 0 143
683 349 149 67 501 175 113 25 253 58 109 803 600 1364 1952 2121 2239 2001 2236 2059 2075 2028 2153 2103 1623 1440 1206 185 0 0 0 0 0
131 65 10 5 117 240 311 333 238 566 1005 1267 1215 215 413 1213 1896 1518 1773 1977 2076 2086 1922 1630 1530 791 442 1 0 0 0 0 0
33 5 2 4 1 26 258 170 102 74 460 759 1144 740 637 494 587 673 922 1022 1066 1414 1245 744 667 492 66 1 0 0 0 0 0
5 3 3 0 0 1 3 13 107 70 11 17 63 74 130 118 121 130 516 625 692 535 107 78 2 1 2 1 0 0 0 0 0
5 3 3 4 1 2 4 2 151 54 49 9 12 31 7 1 1 4 1 1 1 1 1 2 2 1 1 0 1 1 0 0 0
7 4 6 5 2 2 3 1 3 52 1 107 31 9 13 2 2 3 2 1 3 2 1 1 1 1 1 2 1 0 0 0 0
5 1 2 1 2 2 3 1 1 2 3 2 2 1 1 1 1 3 2 2 3 4 2 1 2 3 2 2 3 1 0 0 0
38 0 0 0 0 0 3 2 6 1 3 2 5 5 4 2 1 2 2 1 4 4 3 3 1 6 5 3 4 2 1 0 0
84 43 4 0 0 0 0 0 0 0 0 0 1 2 1 1 0 1 0 0 0 0 0 0 4 3 5 5 4 1 0 0 0
166 11 0 0 0 0 0 0 0 0 0 0 0 0 0 0 0 0 0 0 0 0 0 0 0 0 0 0 0 0 0 0 0
0 0 0 0 0 0 4 6 3 0 0 0 0 0 0 0 0 0 0 0 0 0 0 0 0 0 0 0 0 0 0 0 0